| time (UTC) | temp F | wind direction | speed MPH | gust MPH | rain 1hr in | rain 24hr in | rain mn in | humidity % | barometer mb |
| 20260901172144 | 87 | 180 | 1.0 | 6.0 | 0.00 | 0.09 | 0.00 | 75 | 1011.2 |
| 20260901172041 | 87 | 179 | 0.0 | 4.0 | 0.00 | 0.09 | 0.00 | 77 | 1011.2 |
| 20260901171936 | 87 | 196 | 0.0 | 4.0 | 0.00 | 0.09 | 0.00 | 77 | 1011.3 |
| 20260901171833 | 86 | 172 | 0.0 | 4.0 | 0.00 | 0.09 | 0.00 | 74 | 1011.2 |
| 20260901171729 | 86 | 175 | 0.0 | 4.0 | 0.00 | 0.09 | 0.00 | 75 | 1011.2 |
| 20260901171408 | 86 | 184 | 0.0 | 3.0 | 0.00 | 0.09 | 0.00 | 75 | 1011.3 |
| 20260901171302 | 86 | 184 | 1.0 | 3.0 | 0.00 | 0.09 | 0.00 | 75 | 1011.4 |
| 20260901171158 | 86 | 169 | 1.0 | 3.0 | 0.00 | 0.09 | 0.00 | 75 | 1011.4 |
| 20260901171052 | 86 | 167 | 1.0 | 3.0 | 0.00 | 0.09 | 0.00 | 76 | 1011.4 |
| 20260901170946 | 86 | 156 | 1.0 | 5.0 | 0.00 | 0.09 | 0.00 | 74 | 1011.4 |
| 20260901170843 | 86 | 158 | 0.0 | 5.0 | 0.00 | 0.09 | 0.00 | 74 | 1011.4 |
| 20260901170736 | 86 | 150 | 0.0 | 5.0 | 0.00 | 0.09 | 0.00 | 74 | 1011.4 |
| 20260901170633 | 86 | 188 | 0.0 | 5.0 | 0.00 | 0.09 | 0.00 | 75 | 1011.3 |
| 20260901170528 | 86 | 176 | 0.0 | 5.0 | 0.00 | 0.09 | 0.00 | 74 | 1011.4 |
| 20260901170203 | 86 | 177 | 0.0 | 0.0 | 0.00 | 0.09 | 0.00 | 75 | 1011.4 |
| 20260901170056 | 86 | 193 | 0.0 | 0.0 | 0.00 | 0.09 | 0.00 | 75 | 1011.4 |
| 20260901165949 | 86 | 194 | 0.0 | 0.0 | 0.00 | 0.09 | 0.00 | 75 | 1011.4 |
| 20260901165842 | 86 | 194 | 0.0 | 7.0 | 0.00 | 0.09 | 0.00 | 74 | 1011.4 |
| 20260901165737 | 86 | 197 | 0.0 | 7.0 | 0.00 | 0.09 | 0.00 | 74 | 1011.5 |
| 20260901165636 | 86 | 219 | 0.0 | 5.0 | 0.00 | 0.09 | 0.00 | 73 | 1011.4 |
| 20260901165532 | 86 | 178 | 0.0 | 5.0 | 0.00 | 0.09 | 0.00 | 74 | 1011.5 |
| 20260901165429 | 86 | 176 | 0.0 | 5.0 | 0.00 | 0.09 | 0.00 | 74 | 1011.5 |
| 20260901165324 | 86 | 241 | 0.0 | 5.0 | 0.00 | 0.09 | 0.00 | 74 | 1011.6 |
| 20260901165220 | 86 | 201 | 0.0 | 4.0 | 0.00 | 0.09 | 0.00 | 75 | 1011.6 |
| 20260901165113 | 86 | 246 | 0.0 | 4.0 | 0.00 | 0.09 | 0.00 | 75 | 1011.6 |
| 20260901165005 | 86 | 205 | 0.0 | 4.0 | 0.00 | 0.09 | 0.00 | 75 | 1011.5 |
| 20260901164903 | 86 | 242 | 0.0 | 4.0 | 0.00 | 0.09 | 0.00 | 74 | 1011.6 |
| 20260901164756 | 86 | 192 | 0.0 | 4.0 | 0.00 | 0.09 | 0.00 | 74 | 1011.5 |
| 20260901164652 | 86 | 189 | 0.0 | 2.0 | 0.00 | 0.09 | 0.00 | 75 | 1011.5 |
| 20260901164548 | 86 | 148 | 0.0 | 0.0 | 0.00 | 0.09 | 0.00 | 76 | 1011.6 |
| 20260901164441 | 86 | 168 | 0.0 | 4.0 | 0.00 | 0.09 | 0.00 | 75 | 1011.6 |
| 20260901164334 | 85 | 223 | 0.0 | 4.0 | 0.00 | 0.09 | 0.00 | 75 | 1011.6 |
| 20260901164227 | 85 | 175 | 0.0 | 4.0 | 0.00 | 0.09 | 0.00 | 74 | 1011.6 |
| 20260901164120 | 86 | 175 | 0.0 | 4.0 | 0.00 | 0.09 | 0.00 | 74 | 1011.6 |
| 20260901163755 | 86 | 187 | 0.0 | 0.0 | 0.00 | 0.09 | 0.00 | 75 | 1011.7 |
| 20260901163648 | 85 | 211 | 0.0 | 4.0 | 0.00 | 0.09 | 0.00 | 75 | 1011.7 |
| 20260901163322 | 86 | 176 | 0.0 | 4.0 | 0.00 | 0.09 | 0.00 | 74 | 1011.7 |
| 20260901163217 | 86 | 182 | 0.0 | 4.0 | 0.00 | 0.09 | 0.00 | 74 | 1011.6 |
| 20260901162850 | 85 | 226 | 0.0 | 2.0 | 0.00 | 0.09 | 0.00 | 75 | 1011.6 |
| 20260901162747 | 85 | 242 | 1.0 | 6.0 | 0.00 | 0.09 | 0.00 | 74 | 1011.6 |
| 20260901162424 | 85 | 213 | 1.0 | 5.0 | 0.00 | 0.09 | 0.00 | 74 | 1011.6 |
| 20260901162321 | 85 | 178 | 0.0 | 5.0 | 0.00 | 0.09 | 0.00 | 75 | 1011.6 |
| 20260901162214 | 85 | 192 | 1.0 | 5.0 | 0.00 | 0.09 | 0.00 | 75 | 1011.7 |
| 20260901162110 | 85 | 192 | 1.0 | 5.0 | 0.00 | 0.09 | 0.00 | 75 | 1011.7 |
| 20260901162003 | 85 | 193 | 1.0 | 5.0 | 0.00 | 0.09 | 0.00 | 73 | 1011.7 |
| 20260901161859 | 85 | 183 | 1.0 | 5.0 | 0.00 | 0.09 | 0.00 | 73 | 1011.8 |
| 20260901161754 | 85 | 201 | 1.0 | 5.0 | 0.00 | 0.09 | 0.00 | 73 | 1011.7 |
| 20260901161647 | 85 | 192 | 1.0 | 5.0 | 0.00 | 0.09 | 0.00 | 75 | 1011.7 |
| 20260901161542 | 85 | 178 | 1.0 | 4.0 | 0.00 | 0.09 | 0.00 | 76 | 1011.7 |
| 20260901161436 | 85 | 178 | 1.0 | 4.0 | 0.00 | 0.09 | 0.00 | 75 | 1011.8 |
| 20260901161112 | 85 | 183 | 0.0 | 4.0 | 0.00 | 0.09 | 0.00 | 75 | 1011.8 |
| 20260901161007 | 85 | 194 | 0.0 | 4.0 | 0.00 | 0.09 | 0.00 | 75 | 1011.8 |
| 20260901160904 | 85 | 174 | 0.0 | 4.0 | 0.00 | 0.09 | 0.00 | 76 | 1011.8 |
| 20260901160539 | 85 | 202 | 1.0 | 6.0 | 0.00 | 0.09 | 0.00 | 76 | 1011.8 |
| 20260901160431 | 85 | 159 | 1.0 | 6.0 | 0.00 | 0.09 | 0.00 | 77 | 1011.8 |
| 20260901160325 | 85 | 180 | 1.0 | 6.0 | 0.00 | 0.09 | 0.00 | 76 | 1011.8 |
| 20260901160223 | 85 | 180 | 1.0 | 6.0 | 0.00 | 0.09 | 0.00 | 76 | 1011.8 |
| 20260901160120 | 84 | 180 | 1.0 | 6.0 | 0.00 | 0.09 | 0.00 | 75 | 1011.8 |
| 20260901155757 | 85 | 167 | 0.0 | 4.0 | 0.00 | 0.09 | 0.00 | 75 | 1011.9 |
| 20260901155651 | 85 | 167 | 0.0 | 4.0 | 0.00 | 0.09 | 0.00 | 76 | 1011.9 |
| 20260901155544 | 84 | 166 | 0.0 | 4.0 | 0.00 | 0.09 | 0.00 | 76 | 1011.9 |
| 20260901155439 | 84 | 204 | 0.0 | 4.0 | 0.00 | 0.09 | 0.00 | 76 | 1011.9 |
| 20260901155334 | 84 | 221 | 0.0 | 4.0 | 0.00 | 0.09 | 0.00 | 75 | 1011.9 |
| 20260901155011 | 84 | 195 | 0.0 | 4.0 | 0.00 | 0.09 | 0.00 | 76 | 1011.9 |
| 20260901154904 | 84 | 195 | 0.0 | 4.0 | 0.00 | 0.09 | 0.00 | 77 | 1011.9 |
| 20260901154759 | 84 | 195 | 0.0 | 4.0 | 0.00 | 0.09 | 0.00 | 77 | 1012.0 |
| 20260901154653 | 84 | 195 | 0.0 | 4.0 | 0.00 | 0.09 | 0.00 | 77 | 1012.0 |
| 20260901154548 | 84 | 195 | 0.0 | 4.0 | 0.00 | 0.09 | 0.00 | 79 | 1012.1 |
| 20260901154222 | 84 | 202 | 0.0 | 4.0 | 0.00 | 0.09 | 0.00 | 77 | 1012.1 |
| 20260901154115 | 84 | 262 | 0.0 | 4.0 | 0.00 | 0.09 | 0.00 | 77 | 1012.0 |
| 20260901154006 | 84 | 249 | 0.0 | 4.0 | 0.00 | 0.09 | 0.00 | 75 | 1012.0 |
| 20260901153903 | 84 | 249 | 0.0 | 4.0 | 0.00 | 0.09 | 0.00 | 75 | 1012.0 |
| 20260901153756 | 84 | 249 | 0.0 | 4.0 | 0.00 | 0.09 | 0.00 | 76 | 1012.0 |
| 20260901153651 | 84 | 248 | 0.0 | 4.0 | 0.00 | 0.09 | 0.00 | 76 | 1012.0 |
| 20260901153546 | 84 | 227 | 0.0 | 0.0 | 0.00 | 0.09 | 0.00 | 78 | 1012.0 |
| 20260901153442 | 83 | 227 | 0.0 | 0.0 | 0.00 | 0.09 | 0.00 | 77 | 1012.0 |
| 20260901153339 | 83 | 227 | 0.0 | 0.0 | 0.00 | 0.09 | 0.00 | 76 | 1012.0 |
| 20260901153012 | 83 | 292 | 0.0 | 0.0 | 0.00 | 0.09 | 0.00 | 78 | 1012.0 |
| 20260901152907 | 83 | 292 | 0.0 | 0.0 | 0.00 | 0.09 | 0.00 | 78 | 1011.9 |
| 20260901152802 | 83 | 292 | 0.0 | 0.0 | 0.00 | 0.09 | 0.00 | 77 | 1012.0 |
| 20260901152654 | 83 | 292 | 0.0 | 0.0 | 0.00 | 0.09 | 0.00 | 77 | 1011.9 |
| 20260901152116 | 82 | 291 | 0.0 | 0.0 | 0.00 | 0.09 | 0.00 | 77 | 1011.9 |
| 20260901152012 | 82 | 292 | 0.0 | 0.0 | 0.00 | 0.09 | 0.00 | 78 | 1011.9 |
| 20260901151910 | 82 | 292 | 0.0 | 0.0 | 0.00 | 0.09 | 0.00 | 78 | 1011.9 |
| 20260901151807 | 82 | 292 | 0.0 | 0.0 | 0.00 | 0.09 | 0.00 | 78 | 1011.9 |
| 20260901151705 | 82 | 292 | 0.0 | 4.0 | 0.00 | 0.09 | 0.00 | 77 | 1011.9 |
| 20260901151559 | 82 | 292 | 0.0 | 4.0 | 0.00 | 0.09 | 0.00 | 77 | 1011.9 |
| 20260901151451 | 82 | 293 | 0.0 | 4.0 | 0.00 | 0.09 | 0.00 | 77 | 1011.9 |
| 20260901151344 | 82 | 255 | 0.0 | 1.0 | 0.00 | 0.09 | 0.00 | 78 | 1011.9 |
| 20260901151022 | 82 | 246 | 0.0 | 4.0 | 0.00 | 0.09 | 0.00 | 76 | 1011.9 |
| 20260901150659 | 82 | 262 | 0.0 | 0.0 | 0.00 | 0.09 | 0.00 | 78 | 1011.9 |
| 20260901150555 | 82 | 283 | 0.0 | 4.0 | 0.00 | 0.09 | 0.00 | 79 | 1011.9 |
| 20260901150447 | 82 | 284 | 0.0 | 4.0 | 0.00 | 0.09 | 0.00 | 78 | 1011.9 |
| 20260901150341 | 82 | 192 | 0.0 | 4.0 | 0.00 | 0.09 | 0.00 | 79 | 1012.0 |
| 20260901150016 | 81 | 306 | 0.0 | 3.0 | 0.00 | 0.09 | 0.00 | 79 | 1012.0 |
| 20260901145911 | 81 | 208 | 0.0 | 4.0 | 0.00 | 0.09 | 0.00 | 79 | 1012.0 |
| 20260901145542 | 81 | 207 | 0.0 | 4.0 | 0.00 | 0.09 | 0.00 | 79 | 1012.1 |
| 20260901145440 | 81 | 217 | 0.0 | 4.0 | 0.00 | 0.09 | 0.00 | 80 | 1012.0 |
| 20260901145333 | 81 | 219 | 1.0 | 4.0 | 0.00 | 0.09 | 0.00 | 79 | 1012.1 |
| 20260901145227 | 81 | 218 | 1.0 | 4.0 | 0.00 | 0.09 | 0.00 | 79 | 1012.1 |
| 20260901144902 | 81 | 223 | 1.0 | 4.0 | 0.00 | 0.09 | 0.00 | 80 | 1012.0 |
| 20260901144755 | 80 | 223 | 1.0 | 4.0 | 0.00 | 0.09 | 0.00 | 79 | 1012.0 |
| 20260901144648 | 80 | 223 | 1.0 | 4.0 | 0.00 | 0.09 | 0.00 | 81 | 1012.1 |
| 20260901144541 | 80 | 271 | 1.0 | 4.0 | 0.00 | 0.09 | 0.00 | 80 | 1012.1 |
| 20260901144219 | 80 | 262 | 0.0 | 4.0 | 0.00 | 0.09 | 0.00 | 81 | 1012.2 |
| 20260901144116 | 80 | 259 | 0.0 | 4.0 | 0.00 | 0.09 | 0.00 | 81 | 1012.2 |
| 20260901144010 | 80 | 265 | 0.0 | 3.0 | 0.00 | 0.09 | 0.00 | 81 | 1012.2 |
| 20260901143903 | 80 | 265 | 0.0 | 3.0 | 0.00 | 0.09 | 0.00 | 80 | 1012.1 |
| 20260901143758 | 80 | 286 | 0.0 | 3.0 | 0.00 | 0.09 | 0.00 | 80 | 1012.1 |
| 20260901143432 | 79 | 232 | 0.0 | 0.0 | 0.00 | 0.09 | 0.00 | 82 | 1012.1 |
| 20260901143105 | 79 | 217 | 0.0 | 0.0 | 0.00 | 0.09 | 0.00 | 81 | 1012.2 |
| 20260901143000 | 79 | 251 | 0.0 | 6.0 | 0.00 | 0.09 | 0.00 | 82 | 1012.3 |
| 20260901142641 | 79 | 227 | 0.0 | 6.0 | 0.00 | 0.09 | 0.00 | 81 | 1012.3 |
| 20260901142533 | 79 | 261 | 0.0 | 6.0 | 0.00 | 0.09 | 0.00 | 81 | 1012.4 |
| 20260901142427 | 79 | 275 | 0.0 | 6.0 | 0.00 | 0.09 | 0.00 | 81 | 1012.3 |
| 20260901142322 | 79 | 213 | 0.0 | 6.0 | 0.00 | 0.09 | 0.00 | 81 | 1012.3 |
| 20260901141958 | 79 | 210 | 0.0 | 3.0 | 0.00 | 0.09 | 0.00 | 82 | 1012.3 |
| 20260901141855 | 79 | 182 | 0.0 | 3.0 | 0.00 | 0.09 | 0.00 | 83 | 1012.3 |
| 20260901141751 | 79 | 218 | 0.0 | 0.0 | 0.00 | 0.09 | 0.00 | 83 | 1012.3 |
| 20260901141648 | 79 | 219 | 0.0 | 0.0 | 0.00 | 0.09 | 0.00 | 83 | 1012.3 |
| 20260901141544 | 79 | 219 | 0.0 | 0.0 | 0.00 | 0.09 | 0.00 | 83 | 1012.3 |
| 20260901141436 | 78 | 219 | 0.0 | 3.0 | 0.00 | 0.09 | 0.00 | 83 | 1012.3 |
| 20260901141332 | 78 | 192 | 0.0 | 0.0 | 0.00 | 0.09 | 0.00 | 83 | 1012.4 |
| 20260901141227 | 78 | 192 | 0.0 | 0.0 | 0.00 | 0.09 | 0.00 | 83 | 1012.4 |
| 20260901140901 | 78 | 200 | 0.0 | 0.0 | 0.00 | 0.09 | 0.00 | 83 | 1012.4 |
| 20260901140756 | 78 | 200 | 0.0 | 1.0 | 0.00 | 0.09 | 0.00 | 83 | 1012.3 |
| 20260901140653 | 78 | 201 | 0.0 | 1.0 | 0.00 | 0.09 | 0.00 | 83 | 1012.3 |
| 20260901140546 | 78 | 178 | 0.0 | 0.0 | 0.00 | 0.09 | 0.00 | 83 | 1012.3 |
| 20260901140225 | 78 | 269 | 0.0 | 0.0 | 0.00 | 0.09 | 0.00 | 83 | 1012.2 |
| 20260901140119 | 78 | 269 | 0.0 | 0.0 | 0.00 | 0.09 | 0.00 | 84 | 1012.3 |
| 20260901140016 | 78 | 260 | 0.0 | 0.0 | 0.00 | 0.09 | 0.00 | 83 | 1012.2 |
| 20260901135909 | 78 | 260 | 0.0 | 0.0 | 0.00 | 0.09 | 0.00 | 83 | 1012.2 |
| 20260901135802 | 77 | 260 | 0.0 | 2.0 | 0.00 | 0.09 | 0.00 | 83 | 1012.2 |
| 20260901135658 | 77 | 257 | 0.0 | 2.0 | 0.00 | 0.09 | 0.00 | 83 | 1012.2 |
| 20260901135337 | 77 | 259 | 0.0 | 0.0 | 0.00 | 0.09 | 0.00 | 84 | 1012.1 |
| 20260901135012 | 77 | 255 | 0.0 | 0.0 | 0.00 | 0.09 | 0.00 | 84 | 1012.1 |
| 20260901134905 | 77 | 255 | 0.0 | 0.0 | 0.00 | 0.09 | 0.00 | 84 | 1012.0 |
| 20260901134759 | 77 | 256 | 0.0 | 0.0 | 0.00 | 0.09 | 0.00 | 84 | 1012.0 |
| 20260901134652 | 77 | 256 | 0.0 | 0.0 | 0.00 | 0.09 | 0.00 | 84 | 1012.0 |
| 20260901134548 | 77 | 256 | 0.0 | 0.0 | 0.00 | 0.09 | 0.00 | 84 | 1012.0 |
| 20260901134443 | 77 | 256 | 0.0 | 0.0 | 0.00 | 0.09 | 0.00 | 84 | 1011.9 |
| 20260901134114 | 77 | 255 | 0.0 | 2.0 | 0.00 | 0.09 | 0.00 | 84 | 1011.9 |
| 20260901134007 | 77 | 255 | 0.0 | 2.0 | 0.00 | 0.09 | 0.00 | 84 | 1011.9 |
| 20260901133643 | 77 | 273 | 0.0 | 5.0 | 0.00 | 0.09 | 0.00 | 85 | 1012.0 |
| 20260901133535 | 76 | 229 | 0.0 | 1.0 | 0.00 | 0.09 | 0.00 | 85 | 1012.0 |
| 20260901133433 | 76 | 228 | 0.0 | 1.0 | 0.00 | 0.09 | 0.00 | 85 | 1011.9 |
| 20260901133326 | 76 | 258 | 0.0 | 6.0 | 0.00 | 0.09 | 0.00 | 85 | 1011.9 |
| 20260901133222 | 76 | 248 | 0.0 | 6.0 | 0.00 | 0.09 | 0.00 | 85 | 1011.9 |
| 20260901133115 | 76 | 261 | 0.0 | 6.0 | 0.00 | 0.09 | 0.00 | 85 | 1011.9 |
| 20260901133008 | 76 | 266 | 1.0 | 6.0 | 0.00 | 0.09 | 0.00 | 86 | 1011.9 |
| 20260901132645 | 76 | 248 | 1.0 | 6.0 | 0.00 | 0.09 | 0.00 | 87 | 1012.0 |
| 20260901132540 | 75 | 244 | 1.0 | 6.0 | 0.00 | 0.09 | 0.00 | 87 | 1012.0 |
| 20260901132432 | 75 | 271 | 1.0 | 6.0 | 0.00 | 0.09 | 0.00 | 87 | 1012.0 |
| 20260901132108 | 75 | 265 | 0.0 | 3.0 | 0.00 | 0.09 | 0.00 | 89 | 1012.0 |
| 20260901132002 | 75 | 267 | 0.0 | 3.0 | 0.00 | 0.09 | 0.00 | 89 | 1011.9 |
| 20260901131856 | 75 | 229 | 0.0 | 3.0 | 0.00 | 0.09 | 0.00 | 90 | 1011.9 |
| 20260901131748 | 75 | 256 | 0.0 | 3.0 | 0.00 | 0.09 | 0.00 | 90 | 1011.9 |
| 20260901131644 | 75 | 242 | 0.0 | 3.0 | 0.00 | 0.09 | 0.00 | 91 | 1011.8 |
| 20260901131539 | 74 | 254 | 0.0 | 0.0 | 0.00 | 0.09 | 0.00 | 91 | 1011.8 |
| 20260901131213 | 74 | 254 | 0.0 | 4.0 | 0.00 | 0.09 | 0.00 | 92 | 1011.8 |
| 20260901131108 | 74 | 254 | 0.0 | 4.0 | 0.00 | 0.09 | 0.00 | 92 | 1011.8 |
| 20260901131006 | 74 | 263 | 0.0 | 4.0 | 0.00 | 0.09 | 0.00 | 92 | 1011.8 |
| 20260901130902 | 74 | 263 | 0.0 | 4.0 | 0.00 | 0.09 | 0.00 | 93 | 1011.8 |
| 20260901130754 | 74 | 287 | 0.0 | 0.0 | 0.00 | 0.09 | 0.00 | 93 | 1011.8 |
| 20260901130648 | 73 | 292 | 0.0 | 0.0 | 0.00 | 0.09 | 0.00 | 93 | 1011.8 |
| 20260901130546 | 73 | 261 | 0.0 | 0.0 | 0.00 | 0.09 | 0.00 | 93 | 1011.8 |
| 20260901130439 | 73 | 267 | 0.0 | 0.0 | 0.00 | 0.09 | 0.00 | 93 | 1011.8 |
| 20260901130117 | 73 | 267 | 0.0 | 0.0 | 0.00 | 0.09 | 0.00 | 94 | 1011.9 |
| 20260901130012 | 73 | 267 | 0.0 | 0.0 | 0.00 | 0.09 | 0.00 | 94 | 1011.9 |
| 20260901125905 | 73 | 267 | 0.0 | 0.0 | 0.00 | 0.09 | 0.00 | 94 | 1011.9 |
| 20260901125758 | 73 | 211 | 0.0 | 0.0 | 0.00 | 0.09 | 0.00 | 94 | 1011.9 |
| 20260901125653 | 73 | 211 | 0.0 | 0.0 | 0.00 | 0.09 | 0.00 | 94 | 1011.9 |
| 20260901125551 | 73 | 211 | 0.0 | 0.0 | 0.00 | 0.09 | 0.00 | 94 | 1011.9 |
| 20260901125229 | 73 | 211 | 0.0 | 0.0 | 0.00 | 0.09 | 0.00 | 94 | 1011.9 |
| 20260901125124 | 73 | 211 | 0.0 | 0.0 | 0.00 | 0.09 | 0.00 | 94 | 1012.0 |
| 20260901125020 | 72 | 211 | 0.0 | 0.0 | 0.00 | 0.09 | 0.00 | 94 | 1012.0 |
| 20260901124651 | 72 | 211 | 0.0 | 0.0 | 0.00 | 0.09 | 0.00 | 94 | 1011.9 |
| 20260901124548 | 72 | 211 | 0.0 | 0.0 | 0.00 | 0.09 | 0.00 | 94 | 1011.9 |
| 20260901124443 | 72 | 211 | 0.0 | 0.0 | 0.00 | 0.09 | 0.00 | 94 | 1011.9 |
| 20260901124340 | 72 | 207 | 0.0 | 0.0 | 0.00 | 0.09 | 0.00 | 94 | 1011.9 |
| 20260901124014 | 72 | 207 | 0.0 | 0.0 | 0.00 | 0.09 | 0.00 | 94 | 1011.9 |
| 20260901123909 | 72 | 207 | 0.0 | 0.0 | 0.00 | 0.09 | 0.00 | 94 | 1011.9 |
| 20260901123803 | 72 | 206 | 0.0 | 0.0 | 0.00 | 0.09 | 0.00 | 94 | 1011.9 |
| 20260901123658 | 72 | 206 | 0.0 | 0.0 | 0.00 | 0.09 | 0.00 | 94 | 1011.9 |
| 20260901123552 | 72 | 206 | 0.0 | 0.0 | 0.00 | 0.09 | 0.00 | 94 | 1011.9 |
| 20260901123447 | 72 | 206 | 0.0 | 0.0 | 0.00 | 0.09 | 0.00 | 94 | 1011.9 |
| 20260901123344 | 72 | 206 | 0.0 | 0.0 | 0.00 | 0.09 | 0.00 | 94 | 1011.9 |
| 20260901123236 | 72 | 206 | 0.0 | 0.0 | 0.00 | 0.09 | 0.00 | 94 | 1011.9 |
| 20260901123130 | 72 | 206 | 0.0 | 0.0 | 0.00 | 0.09 | 0.00 | 94 | 1011.9 |
| 20260901123027 | 72 | 206 | 0.0 | 0.0 | 0.00 | 0.09 | 0.00 | 94 | 1011.8 |
| 20260901122704 | 72 | 206 | 0.0 | 0.0 | 0.00 | 0.09 | 0.00 | 94 | 1011.8 |
| 20260901122558 | 72 | 206 | 0.0 | 0.0 | 0.00 | 0.09 | 0.00 | 94 | 1011.9 |
| 20260901122454 | 72 | 206 | 0.0 | 0.0 | 0.00 | 0.09 | 0.00 | 94 | 1011.9 |
| 20260901122348 | 72 | 206 | 0.0 | 0.0 | 0.00 | 0.09 | 0.00 | 94 | 1011.9 |
| 20260901122246 | 72 | 206 | 0.0 | 0.0 | 0.00 | 0.09 | 0.00 | 94 | 1011.9 |
| 20260901122141 | 72 | 206 | 0.0 | 0.0 | 0.00 | 0.09 | 0.00 | 94 | 1011.9 |
| 20260901122034 | 72 | 206 | 0.0 | 0.0 | 0.00 | 0.09 | 0.00 | 94 | 1011.9 |
| 20260901121445 | 72 | 206 | 0.0 | 0.0 | 0.00 | 0.09 | 0.00 | 94 | 1012.0 |
| 20260901121339 | 72 | 206 | 0.0 | 0.0 | 0.00 | 0.09 | 0.00 | 94 | 1012.0 |
| 20260901121235 | 71 | 206 | 0.0 | 0.0 | 0.00 | 0.09 | 0.00 | 94 | 1011.9 |
| 20260901121129 | 71 | 206 | 0.0 | 0.0 | 0.00 | 0.09 | 0.00 | 94 | 1011.9 |
| 20260901121027 | 71 | 206 | 0.0 | 0.0 | 0.00 | 0.09 | 0.00 | 94 | 1012.0 |
| 20260901120924 | 71 | 206 | 0.0 | 0.0 | 0.00 | 0.09 | 0.00 | 94 | 1012.0 |
| 20260901120820 | 71 | 206 | 0.0 | 0.0 | 0.00 | 0.09 | 0.00 | 94 | 1012.0 |
| 20260901120717 | 71 | 206 | 0.0 | 0.0 | 0.00 | 0.09 | 0.00 | 94 | 1012.0 |
| 20260901120614 | 71 | 206 | 0.0 | 0.0 | 0.00 | 0.09 | 0.00 | 94 | 1012.0 |
| 20260901120509 | 71 | 206 | 0.0 | 0.0 | 0.00 | 0.09 | 0.00 | 94 | 1012.1 |
| 20260901120401 | 71 | 206 | 0.0 | 0.0 | 0.00 | 0.09 | 0.00 | 94 | 1012.0 |
| 20260901120255 | 71 | 206 | 0.0 | 0.0 | 0.00 | 0.09 | 0.00 | 94 | 1012.0 |
| 20260901120150 | 71 | 206 | 0.0 | 0.0 | 0.00 | 0.09 | 0.00 | 94 | 1012.0 |
| 20260901115610 | 71 | 206 | 0.0 | 0.0 | 0.00 | 0.09 | 0.00 | 94 | 1012.0 |
| 20260901115505 | 71 | 206 | 0.0 | 0.0 | 0.00 | 0.09 | 0.00 | 94 | 1012.0 |
| 20260901114922 | 71 | 206 | 0.0 | 0.0 | 0.00 | 0.09 | 0.00 | 94 | 1011.9 |
| 20260901114819 | 71 | 206 | 0.0 | 0.0 | 0.00 | 0.09 | 0.00 | 94 | 1012.0 |
| 20260901114712 | 71 | 206 | 0.0 | 0.0 | 0.00 | 0.09 | 0.00 | 94 | 1011.9 |
| 20260901114343 | 71 | 206 | 0.0 | 0.0 | 0.00 | 0.09 | 0.00 | 94 | 1011.9 |
| 20260901114236 | 71 | 206 | 0.0 | 0.0 | 0.00 | 0.09 | 0.00 | 94 | 1011.9 |
| 20260901114132 | 71 | 206 | 0.0 | 0.0 | 0.00 | 0.09 | 0.00 | 94 | 1011.9 |
| 20260901113806 | 71 | 206 | 0.0 | 0.0 | 0.00 | 0.09 | 0.00 | 94 | 1011.9 |
| 20260901113700 | 71 | 206 | 0.0 | 0.0 | 0.00 | 0.09 | 0.00 | 94 | 1011.9 |
| 20260901113556 | 71 | 206 | 0.0 | 0.0 | 0.00 | 0.09 | 0.00 | 94 | 1011.8 |
| 20260901113453 | 71 | 206 | 0.0 | 0.0 | 0.00 | 0.09 | 0.00 | 94 | 1011.8 |
| 20260901113348 | 71 | 206 | 0.0 | 0.0 | 0.00 | 0.09 | 0.00 | 94 | 1011.8 |
| 20260901113245 | 71 | 206 | 0.0 | 0.0 | 0.00 | 0.09 | 0.00 | 94 | 1011.8 |
| 20260901113138 | 71 | 206 | 0.0 | 0.0 | 0.00 | 0.09 | 0.00 | 94 | 1011.8 |
| 20260901113036 | 71 | 206 | 0.0 | 0.0 | 0.00 | 0.09 | 0.00 | 94 | 1011.8 |
| 20260901112928 | 71 | 206 | 0.0 | 0.0 | 0.00 | 0.09 | 0.00 | 94 | 1011.7 |
| 20260901112824 | 71 | 206 | 0.0 | 0.0 | 0.00 | 0.09 | 0.00 | 94 | 1011.7 |
| 20260901112719 | 71 | 206 | 0.0 | 0.0 | 0.00 | 0.09 | 0.00 | 94 | 1011.7 |
| 20260901112616 | 71 | 206 | 0.0 | 0.0 | 0.00 | 0.09 | 0.00 | 94 | 1011.7 |
| 20260901112513 | 70 | 206 | 0.0 | 0.0 | 0.00 | 0.09 | 0.00 | 94 | 1011.7 |
| 20260901112148 | 70 | 206 | 0.0 | 0.0 | 0.00 | 0.09 | 0.00 | 94 | 1011.7 |
| 20260901112042 | 70 | 206 | 0.0 | 0.0 | 0.00 | 0.09 | 0.00 | 94 | 1011.7 |
| 20260901111715 | 70 | 206 | 0.0 | 0.0 | 0.00 | 0.09 | 0.00 | 94 | 1011.7 |
| 20260901111611 | 70 | 206 | 0.0 | 0.0 | 0.00 | 0.09 | 0.00 | 94 | 1011.7 |
| 20260901111507 | 70 | 206 | 0.0 | 0.0 | 0.00 | 0.09 | 0.00 | 94 | 1011.7 |
| 20260901111144 | 70 | 206 | 0.0 | 0.0 | 0.00 | 0.09 | 0.00 | 94 | 1011.8 |
| 20260901111039 | 70 | 206 | 0.0 | 0.0 | 0.00 | 0.09 | 0.00 | 94 | 1011.7 |
| 20260901110935 | 70 | 206 | 0.0 | 0.0 | 0.00 | 0.09 | 0.00 | 94 | 1011.7 |
| 20260901110828 | 70 | 206 | 0.0 | 0.0 | 0.00 | 0.09 | 0.00 | 94 | 1011.7 |
| 20260901110725 | 70 | 206 | 0.0 | 0.0 | 0.00 | 0.09 | 0.00 | 94 | 1011.7 |
| 20260901110622 | 70 | 206 | 0.0 | 0.0 | 0.00 | 0.09 | 0.00 | 94 | 1011.6 |
| 20260901110519 | 70 | 206 | 0.0 | 0.0 | 0.00 | 0.09 | 0.00 | 94 | 1011.6 |
| 20260901110414 | 70 | 206 | 0.0 | 0.0 | 0.00 | 0.09 | 0.00 | 94 | 1011.6 |
| 20260901110307 | 70 | 206 | 0.0 | 0.0 | 0.00 | 0.09 | 0.00 | 94 | 1011.6 |
| 20260901110203 | 70 | 206 | 0.0 | 0.0 | 0.00 | 0.09 | 0.00 | 94 | 1011.6 |
| 20260901105843 | 70 | 207 | 0.0 | 0.0 | 0.00 | 0.09 | 0.00 | 93 | 1011.6 |
| 20260901105735 | 70 | 207 | 0.0 | 0.0 | 0.00 | 0.09 | 0.00 | 93 | 1011.7 |
| 20260901105629 | 70 | 207 | 0.0 | 0.0 | 0.00 | 0.09 | 0.00 | 93 | 1011.6 |
| 20260901105524 | 70 | 207 | 0.0 | 0.0 | 0.00 | 0.09 | 0.00 | 94 | 1011.6 |
| 20260901105421 | 70 | 207 | 0.0 | 0.0 | 0.00 | 0.09 | 0.00 | 94 | 1011.6 |
| 20260901105056 | 70 | 207 | 0.0 | 0.0 | 0.00 | 0.09 | 0.00 | 94 | 1011.6 |
| 20260901104953 | 70 | 207 | 0.0 | 0.0 | 0.00 | 0.09 | 0.00 | 94 | 1011.5 |
| 20260901104631 | 70 | 207 | 0.0 | 0.0 | 0.00 | 0.09 | 0.00 | 94 | 1011.5 |
| 20260901104525 | 70 | 207 | 0.0 | 0.0 | 0.00 | 0.09 | 0.00 | 94 | 1011.5 |
| 20260901104420 | 70 | 207 | 0.0 | 0.0 | 0.00 | 0.09 | 0.00 | 94 | 1011.4 |
| 20260901104313 | 70 | 207 | 0.0 | 0.0 | 0.00 | 0.09 | 0.00 | 94 | 1011.5 |
| 20260901104209 | 70 | 207 | 0.0 | 0.0 | 0.00 | 0.09 | 0.00 | 94 | 1011.5 |
| 20260901104103 | 70 | 207 | 0.0 | 0.0 | 0.00 | 0.09 | 0.00 | 94 | 1011.5 |
| 20260901103959 | 70 | 207 | 0.0 | 0.0 | 0.00 | 0.09 | 0.00 | 94 | 1011.5 |
| 20260901103851 | 70 | 207 | 0.0 | 0.0 | 0.00 | 0.09 | 0.00 | 94 | 1011.5 |
| 20260901103747 | 70 | 207 | 0.0 | 0.0 | 0.00 | 0.09 | 0.00 | 94 | 1011.5 |
| 20260901103644 | 70 | 207 | 0.0 | 0.0 | 0.00 | 0.09 | 0.00 | 94 | 1011.5 |
| 20260901103538 | 70 | 207 | 0.0 | 0.0 | 0.00 | 0.09 | 0.00 | 94 | 1011.5 |
| 20260901103431 | 70 | 207 | 0.0 | 0.0 | 0.00 | 0.09 | 0.00 | 94 | 1011.5 |
| 20260901103323 | 70 | 207 | 0.0 | 0.0 | 0.00 | 0.09 | 0.00 | 93 | 1011.5 |
| 20260901103221 | 70 | 207 | 0.0 | 0.0 | 0.00 | 0.09 | 0.00 | 93 | 1011.5 |
| 20260901103115 | 70 | 207 | 0.0 | 0.0 | 0.00 | 0.09 | 0.00 | 93 | 1011.6 |
| 20260901103012 | 70 | 207 | 0.0 | 0.0 | 0.00 | 0.09 | 0.00 | 93 | 1011.6 |
| 20260901102910 | 70 | 207 | 0.0 | 0.0 | 0.00 | 0.09 | 0.00 | 93 | 1011.6 |
| 20260901102805 | 70 | 207 | 0.0 | 0.0 | 0.00 | 0.09 | 0.00 | 93 | 1011.6 |
| 20260901102442 | 70 | 207 | 0.0 | 0.0 | 0.00 | 0.09 | 0.00 | 93 | 1011.5 |
| 20260901102119 | 70 | 207 | 0.0 | 0.0 | 0.00 | 0.09 | 0.00 | 93 | 1011.5 |
| 20260901101756 | 70 | 207 | 0.0 | 0.0 | 0.00 | 0.09 | 0.00 | 93 | 1011.5 |
| 20260901101650 | 70 | 207 | 0.0 | 0.0 | 0.00 | 0.09 | 0.00 | 93 | 1011.5 |
| 20260901101546 | 70 | 207 | 0.0 | 0.0 | 0.00 | 0.09 | 0.00 | 93 | 1011.5 |
| 20260901101443 | 70 | 207 | 0.0 | 0.0 | 0.00 | 0.09 | 0.00 | 93 | 1011.5 |
| 20260901101341 | 70 | 207 | 0.0 | 0.0 | 0.00 | 0.09 | 0.00 | 93 | 1011.5 |
| 20260901101238 | 70 | 207 | 0.0 | 0.0 | 0.00 | 0.09 | 0.00 | 93 | 1011.5 |
| 20260901101132 | 70 | 207 | 0.0 | 0.0 | 0.00 | 0.09 | 0.00 | 94 | 1011.5 |
| 20260901100802 | 70 | 207 | 0.0 | 0.0 | 0.00 | 0.09 | 0.00 | 93 | 1011.5 |
| 20260901100439 | 70 | 207 | 0.0 | 0.0 | 0.00 | 0.09 | 0.00 | 93 | 1011.5 |
| 20260901100331 | 69 | 207 | 0.0 | 0.0 | 0.00 | 0.09 | 0.00 | 94 | 1011.5 |
| 20260901100009 | 69 | 207 | 0.0 | 0.0 | 0.00 | 0.09 | 0.00 | 93 | 1011.5 |
| 20260901095644 | 69 | 207 | 0.0 | 0.0 | 0.00 | 0.09 | 0.00 | 93 | 1011.4 |
| 20260901095535 | 69 | 207 | 0.0 | 0.0 | 0.00 | 0.09 | 0.00 | 92 | 1011.4 |
| 20260901095428 | 69 | 207 | 0.0 | 0.0 | 0.00 | 0.09 | 0.00 | 92 | 1011.4 |
| 20260901095322 | 69 | 207 | 0.0 | 0.0 | 0.00 | 0.09 | 0.00 | 92 | 1011.4 |
| 20260901095217 | 69 | 207 | 0.0 | 0.0 | 0.00 | 0.09 | 0.00 | 92 | 1011.4 |
| 20260901095115 | 69 | 207 | 0.0 | 0.0 | 0.00 | 0.09 | 0.00 | 93 | 1011.4 |
| 20260901095009 | 69 | 207 | 0.0 | 0.0 | 0.00 | 0.09 | 0.00 | 93 | 1011.4 |
| 20260901094907 | 69 | 207 | 0.0 | 0.0 | 0.00 | 0.09 | 0.00 | 93 | 1011.4 |
| 20260901094801 | 69 | 207 | 0.0 | 0.0 | 0.00 | 0.09 | 0.00 | 93 | 1011.4 |
| 20260901094655 | 69 | 207 | 0.0 | 0.0 | 0.00 | 0.09 | 0.00 | 93 | 1011.4 |
| 20260901094548 | 69 | 207 | 0.0 | 0.0 | 0.00 | 0.09 | 0.00 | 93 | 1011.4 |
| 20260901094009 | 70 | 207 | 0.0 | 0.0 | 0.00 | 0.09 | 0.00 | 93 | 1011.4 |
| 20260901093904 | 70 | 207 | 0.0 | 0.0 | 0.00 | 0.09 | 0.00 | 93 | 1011.4 |
| 20260901093757 | 70 | 207 | 0.0 | 0.0 | 0.00 | 0.09 | 0.00 | 93 | 1011.5 |
| 20260901093654 | 70 | 207 | 0.0 | 0.0 | 0.00 | 0.09 | 0.00 | 93 | 1011.4 |
| 20260901093550 | 70 | 207 | 0.0 | 0.0 | 0.00 | 0.09 | 0.00 | 93 | 1011.4 |
| 20260901093446 | 70 | 207 | 0.0 | 0.0 | 0.00 | 0.09 | 0.00 | 93 | 1011.5 |
| 20260901093339 | 70 | 207 | 0.0 | 0.0 | 0.00 | 0.09 | 0.00 | 93 | 1011.5 |
| 20260901093234 | 70 | 207 | 0.0 | 0.0 | 0.00 | 0.09 | 0.00 | 93 | 1011.5 |
| 20260901092909 | 70 | 207 | 0.0 | 0.0 | 0.00 | 0.09 | 0.00 | 93 | 1011.5 |
| 20260901092801 | 70 | 207 | 0.0 | 0.0 | 0.00 | 0.09 | 0.00 | 93 | 1011.5 |
| 20260901092658 | 70 | 207 | 0.0 | 0.0 | 0.00 | 0.09 | 0.00 | 93 | 1011.5 |
| 20260901092554 | 70 | 207 | 0.0 | 0.0 | 0.00 | 0.09 | 0.00 | 93 | 1011.5 |
| 20260901092446 | 70 | 207 | 0.0 | 0.0 | 0.00 | 0.09 | 0.00 | 93 | 1011.5 |
| 20260901092344 | 70 | 207 | 0.0 | 0.0 | 0.00 | 0.09 | 0.00 | 93 | 1011.5 |
| 20260901092240 | 70 | 207 | 0.0 | 0.0 | 0.00 | 0.09 | 0.00 | 93 | 1011.5 |
| 20260901092133 | 70 | 207 | 0.0 | 0.0 | 0.00 | 0.09 | 0.00 | 92 | 1011.5 |
| 20260901092030 | 70 | 207 | 0.0 | 0.0 | 0.00 | 0.09 | 0.00 | 92 | 1011.5 |
| 20260901091926 | 70 | 207 | 0.0 | 0.0 | 0.00 | 0.09 | 0.00 | 92 | 1011.5 |
| 20260901091822 | 70 | 207 | 0.0 | 0.0 | 0.00 | 0.09 | 0.00 | 92 | 1011.5 |
| 20260901091718 | 70 | 207 | 0.0 | 0.0 | 0.00 | 0.09 | 0.00 | 92 | 1011.5 |
| 20260901091610 | 70 | 207 | 0.0 | 0.0 | 0.00 | 0.09 | 0.00 | 92 | 1011.5 |
| 20260901091505 | 70 | 207 | 0.0 | 0.0 | 0.00 | 0.09 | 0.00 | 92 | 1011.4 |
| 20260901091403 | 70 | 207 | 0.0 | 0.0 | 0.00 | 0.09 | 0.00 | 92 | 1011.4 |
| 20260901091034 | 70 | 207 | 0.0 | 0.0 | 0.00 | 0.09 | 0.00 | 92 | 1011.4 |
| 20260901090448 | 70 | 207 | 0.0 | 0.0 | 0.00 | 0.09 | 0.00 | 92 | 1011.3 |
| 20260901090343 | 70 | 207 | 0.0 | 0.0 | 0.00 | 0.09 | 0.00 | 92 | 1011.2 |
| 20260901090235 | 70 | 207 | 0.0 | 0.0 | 0.00 | 0.09 | 0.00 | 92 | 1011.3 |
| 20260901090130 | 70 | 207 | 0.0 | 0.0 | 0.00 | 0.09 | 0.00 | 92 | 1011.2 |
| 20260901090024 | 70 | 207 | 0.0 | 0.0 | 0.00 | 0.09 | 0.00 | 92 | 1011.2 |
| 20260901085917 | 70 | 207 | 0.0 | 0.0 | 0.00 | 0.09 | 0.00 | 92 | 1011.2 |
| 20260901085813 | 70 | 207 | 0.0 | 0.0 | 0.00 | 0.09 | 0.00 | 92 | 1011.2 |
| 20260901085708 | 70 | 207 | 0.0 | 0.0 | 0.00 | 0.09 | 0.00 | 92 | 1011.2 |
| 20260901085604 | 70 | 207 | 0.0 | 0.0 | 0.00 | 0.09 | 0.00 | 92 | 1011.2 |
| 20260901085500 | 70 | 207 | 0.0 | 0.0 | 0.00 | 0.09 | 0.00 | 92 | 1011.2 |
| 20260901084914 | 70 | 207 | 0.0 | 0.0 | 0.00 | 0.09 | 0.00 | 93 | 1011.3 |
| 20260901084808 | 70 | 207 | 0.0 | 0.0 | 0.00 | 0.09 | 0.00 | 93 | 1011.3 |
| 20260901084443 | 70 | 207 | 0.0 | 0.0 | 0.00 | 0.09 | 0.00 | 93 | 1011.3 |
| 20260901084340 | 70 | 207 | 0.0 | 0.0 | 0.00 | 0.09 | 0.00 | 93 | 1011.3 |
| 20260901084233 | 70 | 207 | 0.0 | 0.0 | 0.00 | 0.09 | 0.00 | 93 | 1011.3 |
| 20260901084130 | 70 | 207 | 0.0 | 0.0 | 0.00 | 0.09 | 0.00 | 92 | 1011.3 |
| 20260901084024 | 70 | 207 | 0.0 | 0.0 | 0.00 | 0.09 | 0.00 | 92 | 1011.3 |
| 20260901083920 | 70 | 207 | 0.0 | 0.0 | 0.00 | 0.09 | 0.00 | 92 | 1011.3 |
| 20260901083817 | 70 | 207 | 0.0 | 0.0 | 0.00 | 0.09 | 0.00 | 92 | 1011.3 |
| 20260901083714 | 70 | 207 | 0.0 | 0.0 | 0.00 | 0.09 | 0.00 | 92 | 1011.2 |
| 20260901083346 | 70 | 207 | 0.0 | 0.0 | 0.00 | 0.09 | 0.00 | 92 | 1011.3 |
| 20260901083023 | 70 | 207 | 0.0 | 0.0 | 0.00 | 0.09 | 0.00 | 92 | 1011.2 |
| 20260901082920 | 70 | 207 | 0.0 | 0.0 | 0.00 | 0.09 | 0.00 | 92 | 1011.2 |
| 20260901082814 | 70 | 207 | 0.0 | 0.0 | 0.00 | 0.09 | 0.00 | 92 | 1011.2 |
| 20260901082708 | 70 | 207 | 0.0 | 0.0 | 0.00 | 0.09 | 0.00 | 92 | 1011.1 |
| 20260901082601 | 70 | 207 | 0.0 | 0.0 | 0.00 | 0.09 | 0.00 | 92 | 1011.1 |
| 20260901082456 | 71 | 207 | 0.0 | 0.0 | 0.00 | 0.09 | 0.00 | 92 | 1011.1 |
| 20260901082132 | 71 | 207 | 0.0 | 0.0 | 0.00 | 0.09 | 0.00 | 92 | 1011.1 |
| 20260901082027 | 71 | 207 | 0.0 | 0.0 | 0.00 | 0.09 | 0.00 | 92 | 1011.2 |
| 20260901081924 | 71 | 207 | 0.0 | 0.0 | 0.00 | 0.09 | 0.00 | 92 | 1011.2 |
| 20260901081819 | 71 | 207 | 0.0 | 0.0 | 0.00 | 0.09 | 0.00 | 92 | 1011.2 |
| 20260901081711 | 71 | 207 | 0.0 | 0.0 | 0.00 | 0.09 | 0.00 | 92 | 1011.2 |
| 20260901081604 | 71 | 207 | 0.0 | 0.0 | 0.00 | 0.09 | 0.00 | 92 | 1011.2 |
| 20260901081501 | 71 | 207 | 0.0 | 0.0 | 0.00 | 0.09 | 0.00 | 92 | 1011.2 |
| 20260901081133 | 71 | 207 | 0.0 | 0.0 | 0.00 | 0.09 | 0.00 | 92 | 1011.2 |
| 20260901081031 | 71 | 207 | 0.0 | 0.0 | 0.00 | 0.09 | 0.00 | 92 | 1011.2 |
| 20260901080927 | 71 | 207 | 0.0 | 0.0 | 0.00 | 0.09 | 0.00 | 92 | 1011.2 |
| 20260901080340 | 71 | 207 | 0.0 | 0.0 | 0.00 | 0.09 | 0.00 | 92 | 1011.1 |
| 20260901080237 | 71 | 207 | 0.0 | 0.0 | 0.00 | 0.09 | 0.00 | 92 | 1011.2 |
| 20260901080130 | 71 | 207 | 0.0 | 0.0 | 0.00 | 0.09 | 0.00 | 92 | 1011.2 |
| 20260901080026 | 71 | 207 | 0.0 | 0.0 | 0.00 | 0.09 | 0.00 | 92 | 1011.2 |
| 20260901075919 | 71 | 207 | 0.0 | 0.0 | 0.00 | 0.09 | 0.00 | 92 | 1011.2 |
| 20260901075817 | 71 | 207 | 0.0 | 0.0 | 0.00 | 0.09 | 0.00 | 91 | 1011.1 |
| 20260901075450 | 71 | 207 | 0.0 | 0.0 | 0.00 | 0.09 | 0.00 | 91 | 1011.1 |
| 20260901075346 | 71 | 207 | 0.0 | 0.0 | 0.00 | 0.09 | 0.00 | 91 | 1011.1 |
| 20260901075244 | 71 | 207 | 0.0 | 0.0 | 0.00 | 0.09 | 0.00 | 91 | 1011.1 |
| 20260901075142 | 71 | 207 | 0.0 | 0.0 | 0.00 | 0.09 | 0.00 | 91 | 1011.1 |
| 20260901074815 | 71 | 207 | 0.0 | 0.0 | 0.00 | 0.09 | 0.00 | 91 | 1011.0 |
| 20260901074711 | 71 | 207 | 0.0 | 0.0 | 0.00 | 0.09 | 0.00 | 91 | 1011.0 |
| 20260901074607 | 71 | 207 | 0.0 | 0.0 | 0.00 | 0.09 | 0.00 | 91 | 1011.0 |
| 20260901074502 | 71 | 207 | 0.0 | 0.0 | 0.00 | 0.09 | 0.00 | 91 | 1011.0 |
| 20260901073915 | 72 | 207 | 0.0 | 0.0 | 0.00 | 0.09 | 0.00 | 91 | 1011.0 |
| 20260901073809 | 72 | 207 | 0.0 | 0.0 | 0.00 | 0.09 | 0.00 | 91 | 1011.0 |
| 20260901073703 | 72 | 207 | 0.0 | 0.0 | 0.00 | 0.09 | 0.00 | 91 | 1011.0 |
| 20260901073559 | 72 | 207 | 0.0 | 0.0 | 0.00 | 0.09 | 0.00 | 91 | 1011.0 |
| 20260901073453 | 72 | 207 | 0.0 | 0.0 | 0.00 | 0.09 | 0.00 | 91 | 1011.0 |
| 20260901073349 | 72 | 207 | 0.0 | 0.0 | 0.00 | 0.09 | 0.00 | 91 | 1011.0 |
| 20260901073242 | 72 | 207 | 0.0 | 0.0 | 0.00 | 0.09 | 0.00 | 91 | 1011.0 |
| 20260901072914 | 72 | 207 | 0.0 | 0.0 | 0.00 | 0.09 | 0.00 | 91 | 1011.0 |
| 20260901072811 | 72 | 207 | 0.0 | 0.0 | 0.00 | 0.09 | 0.00 | 91 | 1011.0 |
| 20260901072708 | 72 | 207 | 0.0 | 0.0 | 0.00 | 0.09 | 0.00 | 91 | 1011.0 |
| 20260901072603 | 72 | 207 | 0.0 | 0.0 | 0.00 | 0.09 | 0.00 | 91 | 1011.0 |
| 20260901072458 | 72 | 207 | 0.0 | 0.0 | 0.00 | 0.09 | 0.00 | 91 | 1011.0 |
| 20260901072352 | 72 | 207 | 0.0 | 0.0 | 0.00 | 0.09 | 0.00 | 91 | 1011.0 |
| 20260901072249 | 72 | 207 | 0.0 | 0.0 | 0.00 | 0.09 | 0.00 | 91 | 1011.0 |
| 20260901071923 | 72 | 207 | 0.0 | 0.0 | 0.00 | 0.09 | 0.00 | 91 | 1011.0 |
| 20260901071820 | 72 | 207 | 0.0 | 0.0 | 0.00 | 0.09 | 0.00 | 91 | 1011.0 |
| 20260901071714 | 72 | 207 | 0.0 | 0.0 | 0.00 | 0.09 | 0.00 | 91 | 1011.0 |
| 20260901071612 | 72 | 207 | 0.0 | 0.0 | 0.00 | 0.09 | 0.00 | 91 | 1011.0 |
| 20260901071510 | 72 | 207 | 0.0 | 0.0 | 0.00 | 0.09 | 0.00 | 91 | 1011.0 |
| 20260901071406 | 72 | 207 | 0.0 | 0.0 | 0.00 | 0.09 | 0.00 | 91 | 1010.9 |
| 20260901071044 | 72 | 207 | 0.0 | 0.0 | 0.00 | 0.09 | 0.00 | 91 | 1010.9 |
| 20260901070937 | 72 | 207 | 0.0 | 0.0 | 0.00 | 0.09 | 0.00 | 90 | 1010.9 |
| 20260901070836 | 72 | 207 | 0.0 | 0.0 | 0.00 | 0.09 | 0.00 | 90 | 1011.0 |
| 20260901070733 | 72 | 207 | 0.0 | 0.0 | 0.00 | 0.09 | 0.00 | 90 | 1010.9 |
| 20260901070628 | 72 | 207 | 0.0 | 0.0 | 0.00 | 0.09 | 0.00 | 90 | 1011.0 |
| 20260901070303 | 73 | 207 | 0.0 | 0.0 | 0.00 | 0.09 | 0.00 | 90 | 1011.0 |
| 20260901070157 | 73 | 207 | 0.0 | 0.0 | 0.00 | 0.09 | 0.00 | 90 | 1011.0 |
| 20260901070050 | 73 | 207 | 0.0 | 0.0 | 0.00 | 0.09 | 0.00 | 90 | 1011.0 |
| 20260901065948 | 73 | 207 | 0.0 | 0.0 | 0.00 | 0.09 | 0.00 | 90 | 1010.9 |
| 20260901065843 | 73 | 207 | 0.0 | 0.0 | 0.00 | 0.09 | 0.00 | 90 | 1010.9 |
| 20260901065735 | 73 | 207 | 0.0 | 0.0 | 0.00 | 0.09 | 0.00 | 90 | 1010.9 |
| 20260901065628 | 73 | 207 | 0.0 | 0.0 | 0.00 | 0.09 | 0.00 | 90 | 1011.0 |
| 20260901065525 | 73 | 207 | 0.0 | 0.0 | 0.00 | 0.09 | 0.00 | 90 | 1011.0 |
| 20260901065421 | 73 | 207 | 0.0 | 0.0 | 0.00 | 0.09 | 0.00 | 90 | 1011.0 |
| 20260901065053 | 73 | 207 | 0.0 | 0.0 | 0.00 | 0.09 | 0.00 | 90 | 1011.0 |
| 20260901064949 | 73 | 207 | 0.0 | 0.0 | 0.00 | 0.09 | 0.00 | 90 | 1011.0 |
| 20260901064845 | 73 | 207 | 0.0 | 0.0 | 0.00 | 0.09 | 0.00 | 89 | 1011.0 |
| 20260901064741 | 73 | 207 | 0.0 | 0.0 | 0.00 | 0.09 | 0.00 | 89 | 1011.0 |
| 20260901064638 | 73 | 207 | 0.0 | 0.0 | 0.00 | 0.09 | 0.00 | 89 | 1011.0 |
| 20260901064535 | 73 | 207 | 0.0 | 0.0 | 0.00 | 0.09 | 0.00 | 89 | 1011.0 |
| 20260901064427 | 73 | 207 | 0.0 | 0.0 | 0.00 | 0.09 | 0.00 | 89 | 1011.0 |
| 20260901064104 | 74 | 207 | 0.0 | 0.0 | 0.00 | 0.09 | 0.00 | 89 | 1011.0 |
| 20260901064000 | 74 | 207 | 0.0 | 0.0 | 0.00 | 0.09 | 0.00 | 89 | 1011.0 |
| 20260901063856 | 74 | 207 | 0.0 | 0.0 | 0.00 | 0.09 | 0.00 | 89 | 1011.0 |
| 20260901063751 | 74 | 207 | 0.0 | 0.0 | 0.00 | 0.09 | 0.00 | 89 | 1011.0 |
| 20260901063646 | 74 | 207 | 0.0 | 0.0 | 0.00 | 0.09 | 0.00 | 89 | 1011.0 |
| 20260901063540 | 74 | 207 | 0.0 | 0.0 | 0.00 | 0.09 | 0.00 | 89 | 1011.0 |
| 20260901063435 | 74 | 207 | 0.0 | 0.0 | 0.00 | 0.09 | 0.00 | 89 | 1011.0 |
| 20260901063330 | 74 | 207 | 0.0 | 0.0 | 0.00 | 0.09 | 0.00 | 88 | 1010.9 |
| 20260901063226 | 74 | 207 | 0.0 | 0.0 | 0.00 | 0.09 | 0.00 | 88 | 1011.0 |
| 20260901063120 | 74 | 207 | 0.0 | 0.0 | 0.00 | 0.09 | 0.00 | 88 | 1010.9 |
| 20260901063014 | 74 | 207 | 0.0 | 0.0 | 0.00 | 0.09 | 0.00 | 88 | 1010.9 |
| 20260901062906 | 74 | 207 | 0.0 | 0.0 | 0.00 | 0.09 | 0.00 | 88 | 1011.0 |
| 20260901062804 | 74 | 207 | 0.0 | 0.0 | 0.00 | 0.09 | 0.00 | 88 | 1011.0 |
| 20260901062702 | 75 | 207 | 0.0 | 0.0 | 0.00 | 0.09 | 0.00 | 88 | 1011.0 |
| 20260901062555 | 75 | 207 | 0.0 | 0.0 | 0.00 | 0.09 | 0.00 | 88 | 1011.0 |
| 20260901062451 | 75 | 207 | 0.0 | 0.0 | 0.00 | 0.09 | 0.00 | 88 | 1011.0 |
| 20260901062349 | 75 | 207 | 0.0 | 0.0 | 0.00 | 0.09 | 0.00 | 88 | 1011.0 |
| 20260901062242 | 75 | 207 | 0.0 | 0.0 | 0.00 | 0.09 | 0.00 | 88 | 1011.0 |
| 20260901062137 | 75 | 207 | 0.0 | 0.0 | 0.00 | 0.09 | 0.00 | 88 | 1011.0 |
| 20260901062033 | 75 | 207 | 0.0 | 0.0 | 0.00 | 0.09 | 0.00 | 88 | 1011.0 |
| 20260901061706 | 75 | 207 | 0.0 | 0.0 | 0.00 | 0.09 | 0.00 | 88 | 1011.0 |
| 20260901061340 | 75 | 207 | 0.0 | 0.0 | 0.00 | 0.09 | 0.00 | 88 | 1011.0 |
| 20260901061236 | 75 | 207 | 0.0 | 0.0 | 0.00 | 0.09 | 0.00 | 88 | 1011.0 |
| 20260901061133 | 75 | 207 | 0.0 | 0.0 | 0.00 | 0.09 | 0.00 | 88 | 1011.0 |
| 20260901061027 | 75 | 207 | 0.0 | 0.0 | 0.00 | 0.09 | 0.00 | 88 | 1011.0 |
| 20260901060922 | 75 | 207 | 0.0 | 0.0 | 0.00 | 0.09 | 0.00 | 88 | 1011.0 |
| 20260901060556 | 75 | 207 | 0.0 | 0.0 | 0.00 | 0.09 | 0.00 | 88 | 1011.1 |
| 20260901060226 | 75 | 207 | 0.0 | 0.0 | 0.00 | 0.09 | 0.00 | 87 | 1011.1 |
| 20260901060124 | 75 | 207 | 0.0 | 0.0 | 0.00 | 0.09 | 0.00 | 87 | 1011.1 |
| 20260901060021 | 75 | 207 | 0.0 | 0.0 | 0.00 | 0.09 | 0.00 | 87 | 1011.1 |
| 20260901055919 | 75 | 207 | 0.0 | 0.0 | 0.00 | 0.09 | 0.00 | 88 | 1011.1 |
| 20260901055814 | 76 | 207 | 0.0 | 0.0 | 0.00 | 0.09 | 0.00 | 87 | 1011.2 |
| 20260901055709 | 76 | 207 | 0.0 | 0.0 | 0.00 | 0.09 | 0.00 | 87 | 1011.1 |
| 20260901055602 | 76 | 207 | 0.0 | 0.0 | 0.00 | 0.09 | 0.00 | 87 | 1011.1 |
| 20260901055455 | 76 | 207 | 0.0 | 0.0 | 0.00 | 0.09 | 0.00 | 87 | 1011.2 |
| 20260901055349 | 76 | 207 | 0.0 | 0.0 | 0.00 | 0.09 | 0.00 | 87 | 1011.2 |
| 20260901055247 | 76 | 207 | 0.0 | 0.0 | 0.00 | 0.09 | 0.00 | 87 | 1011.3 |
| 20260901055141 | 76 | 207 | 0.0 | 0.0 | 0.00 | 0.09 | 0.00 | 87 | 1011.2 |
| 20260901055035 | 76 | 207 | 0.0 | 0.0 | 0.00 | 0.09 | 0.00 | 87 | 1011.2 |
| 20260901054929 | 76 | 207 | 0.0 | 0.0 | 0.00 | 0.09 | 0.00 | 87 | 1011.2 |
| 20260901054824 | 76 | 207 | 0.0 | 0.0 | 0.00 | 0.09 | 0.00 | 87 | 1011.3 |
| 20260901054721 | 76 | 207 | 0.0 | 0.0 | 0.00 | 0.09 | 0.00 | 87 | 1011.3 |
| 20260901054614 | 76 | 207 | 0.0 | 0.0 | 0.00 | 0.09 | 0.00 | 87 | 1011.3 |
| 20260901054508 | 76 | 207 | 0.0 | 0.0 | 0.00 | 0.09 | 0.00 | 87 | 1011.3 |
| 20260901054401 | 76 | 215 | 0.0 | 0.0 | 0.00 | 0.09 | 0.00 | 87 | 1011.3 |
| 20260901054259 | 76 | 215 | 0.0 | 0.0 | 0.00 | 0.09 | 0.00 | 87 | 1011.3 |
| 20260901054152 | 76 | 215 | 0.0 | 0.0 | 0.00 | 0.09 | 0.00 | 87 | 1011.2 |
| 20260901054047 | 76 | 215 | 0.0 | 0.0 | 0.00 | 0.09 | 0.00 | 87 | 1011.2 |
| 20260901053941 | 76 | 215 | 0.0 | 0.0 | 0.00 | 0.09 | 0.00 | 87 | 1011.2 |
| 20260901053836 | 76 | 215 | 0.0 | 0.0 | 0.00 | 0.09 | 0.00 | 87 | 1011.2 |
| 20260901053510 | 76 | 217 | 0.0 | 0.0 | 0.00 | 0.09 | 0.00 | 87 | 1011.2 |
| 20260901053404 | 76 | 217 | 0.0 | 0.0 | 0.00 | 0.09 | 0.00 | 87 | 1011.2 |
| 20260901053037 | 76 | 222 | 0.0 | 0.0 | 0.00 | 0.09 | 0.00 | 87 | 1011.2 |
| 20260901052934 | 76 | 222 | 0.0 | 0.0 | 0.00 | 0.09 | 0.00 | 87 | 1011.2 |
| 20260901052609 | 76 | 222 | 0.0 | 0.0 | 0.00 | 0.09 | 0.00 | 87 | 1011.2 |
| 20260901052503 | 76 | 222 | 0.0 | 0.0 | 0.00 | 0.09 | 0.00 | 87 | 1011.2 |
| 20260901052400 | 76 | 222 | 0.0 | 0.0 | 0.00 | 0.09 | 0.00 | 87 | 1011.2 |
| 20260901052257 | 76 | 222 | 0.0 | 1.0 | 0.00 | 0.09 | 0.00 | 87 | 1011.2 |
| 20260901052156 | 76 | 222 | 0.0 | 1.0 | 0.00 | 0.09 | 0.00 | 87 | 1011.2 |
| 20260901052052 | 76 | 246 | 0.0 | 0.0 | 0.00 | 0.09 | 0.00 | 87 | 1011.2 |
| 20260901051723 | 76 | 236 | 0.0 | 1.0 | 0.00 | 0.09 | 0.00 | 87 | 1011.2 |
| 20260901051620 | 76 | 201 | 0.0 | 0.0 | 0.00 | 0.09 | 0.00 | 87 | 1011.2 |
| 20260901051513 | 76 | 201 | 0.0 | 0.0 | 0.00 | 0.09 | 0.00 | 87 | 1011.3 |
| 20260901051410 | 76 | 199 | 0.0 | 1.0 | 0.00 | 0.09 | 0.00 | 87 | 1011.3 |
| 20260901051304 | 76 | 198 | 0.0 | 1.0 | 0.00 | 0.09 | 0.00 | 88 | 1011.3 |
| 20260901051156 | 76 | 187 | 0.0 | 0.0 | 0.00 | 0.09 | 0.00 | 88 | 1011.2 |
| 20260901051053 | 76 | 187 | 0.0 | 3.0 | 0.00 | 0.09 | 0.00 | 88 | 1011.2 |
| 20260901050950 | 76 | 164 | 0.0 | 3.0 | 0.00 | 0.09 | 0.00 | 88 | 1011.2 |
| 20260901050845 | 76 | 195 | 0.0 | 1.0 | 0.00 | 0.09 | 0.00 | 88 | 1011.3 |
| 20260901050741 | 76 | 192 | 0.0 | 0.0 | 0.00 | 0.09 | 0.00 | 88 | 1011.3 |
| 20260901050638 | 76 | 192 | 0.0 | 0.0 | 0.00 | 0.09 | 0.00 | 88 | 1011.3 |
| 20260901050533 | 76 | 192 | 0.0 | 0.0 | 0.00 | 0.09 | 0.00 | 88 | 1011.3 |
| 20260901050428 | 76 | 192 | 0.0 | 0.0 | 0.00 | 0.09 | 0.00 | 88 | 1011.2 |
| 20260901050106 | 76 | 188 | 0.0 | 0.0 | 0.00 | 0.09 | 0.00 | 88 | 1011.1 |
| 20260901050000 | 76 | 188 | 0.0 | 0.0 | 0.00 | 0.09 | 0.00 | 88 | 1011.1 |
| 20260901045855 | 76 | 215 | 0.0 | 0.0 | 0.00 | 0.09 | 0.00 | 88 | 1011.1 |
| 20260901045748 | 76 | 215 | 0.0 | 0.0 | 0.00 | 0.09 | 0.00 | 88 | 1011.1 |
| 20260901045646 | 76 | 215 | 0.0 | 0.0 | 0.00 | 0.09 | 0.00 | 88 | 1011.2 |
| 20260901045542 | 76 | 184 | 0.0 | 0.0 | 0.00 | 0.09 | 0.00 | 88 | 1011.2 |
| 20260901045215 | 76 | 183 | 0.0 | 0.0 | 0.00 | 0.09 | 0.00 | 88 | 1011.2 |
| 20260901045110 | 76 | 184 | 0.0 | 0.0 | 0.00 | 0.09 | 0.00 | 88 | 1011.2 |
| 20260901044746 | 76 | 203 | 0.0 | 0.0 | 0.00 | 0.09 | 0.00 | 88 | 1011.2 |
| 20260901044421 | 76 | 190 | 0.0 | 0.0 | 0.00 | 0.09 | 0.00 | 88 | 1011.1 |
| 20260901044315 | 76 | 175 | 0.0 | 0.0 | 0.00 | 0.09 | 0.00 | 88 | 1011.1 |
| 20260901044214 | 76 | 186 | 0.0 | 0.0 | 0.00 | 0.09 | 0.00 | 88 | 1011.1 |
| 20260901044105 | 76 | 224 | 0.0 | 0.0 | 0.00 | 0.09 | 0.00 | 88 | 1011.1 |
| 20260901043959 | 76 | 224 | 0.0 | 0.0 | 0.00 | 0.09 | 0.00 | 88 | 1011.1 |
| 20260901043851 | 76 | 227 | 0.0 | 0.0 | 0.00 | 0.09 | 0.00 | 89 | 1011.1 |
| 20260901043748 | 76 | 186 | 0.0 | 1.0 | 0.00 | 0.09 | 0.00 | 89 | 1011.1 |
| 20260901043641 | 76 | 180 | 0.0 | 1.0 | 0.00 | 0.09 | 0.00 | 89 | 1011.1 |
| 20260901043539 | 76 | 180 | 0.0 | 0.0 | 0.00 | 0.09 | 0.00 | 89 | 1011.1 |
| 20260901043434 | 76 | 180 | 0.0 | 1.0 | 0.00 | 0.09 | 0.00 | 89 | 1011.1 |
| 20260901043330 | 76 | 180 | 0.0 | 1.0 | 0.00 | 0.09 | 0.00 | 89 | 1011.2 |
| 20260901043008 | 76 | 224 | 0.0 | 0.0 | 0.00 | 0.09 | 0.00 | 89 | 1011.1 |
| 20260901042905 | 76 | 225 | 0.0 | 0.0 | 0.00 | 0.09 | 0.00 | 89 | 1011.1 |
| 20260901042759 | 75 | 225 | 0.0 | 2.0 | 0.00 | 0.09 | 0.00 | 89 | 1011.1 |
| 20260901042654 | 75 | 223 | 0.0 | 2.0 | 0.00 | 0.09 | 0.00 | 89 | 1011.1 |
| 20260901042547 | 75 | 220 | 0.0 | 0.0 | 0.00 | 0.09 | 0.00 | 89 | 1011.1 |
| 20260901041959 | 75 | 195 | 0.0 | 0.0 | 0.00 | 0.09 | 0.00 | 89 | 1011.0 |
| 20260901041853 | 75 | 196 | 0.0 | 0.0 | 0.00 | 0.09 | 0.00 | 89 | 1011.1 |
| 20260901041751 | 75 | 261 | 0.0 | 0.0 | 0.00 | 0.09 | 0.00 | 89 | 1011.1 |
| 20260901041644 | 75 | 265 | 0.0 | 0.0 | 0.00 | 0.09 | 0.00 | 89 | 1011.1 |
| 20260901041539 | 75 | 183 | 0.0 | 0.0 | 0.00 | 0.09 | 0.00 | 89 | 1011.1 |
| 20260901041432 | 75 | 183 | 0.0 | 0.0 | 0.00 | 0.09 | 0.00 | 89 | 1011.1 |
| 20260901041326 | 75 | 182 | 0.0 | 1.0 | 0.00 | 0.09 | 0.00 | 89 | 1011.1 |
| 20260901041220 | 75 | 183 | 0.0 | 1.0 | 0.00 | 0.09 | 0.00 | 89 | 1011.0 |
| 20260901040637 | 75 | 190 | 0.0 | 0.0 | 0.00 | 0.09 | 0.00 | 89 | 1011.0 |
| 20260901040312 | 75 | 190 | 0.0 | 0.0 | 0.00 | 0.09 | 0.00 | 89 | 1011.0 |
| 20260901040206 | 75 | 173 | 0.0 | 0.0 | 0.00 | 0.09 | 0.00 | 89 | 1011.0 |
| 20260901035846 | 75 | 174 | 0.0 | 0.0 | 0.00 | 0.09 | 0.10 | 89 | 1011.1 |
| 20260901035738 | 75 | 174 | 0.0 | 0.0 | 0.00 | 0.09 | 0.10 | 89 | 1011.1 |
| 20260901034932 | 75 | 163 | 0.0 | 0.0 | 0.00 | 0.09 | 0.10 | 89 | 1011.2 |
| 20260901034829 | 75 | 163 | 0.0 | 0.0 | 0.00 | 0.09 | 0.10 | 89 | 1011.2 |
| 20260901034505 | 75 | 161 | 0.0 | 0.0 | 0.00 | 0.09 | 0.10 | 89 | 1011.4 |
| 20260901034401 | 75 | 161 | 0.0 | 0.0 | 0.00 | 0.09 | 0.10 | 88 | 1011.4 |
| 20260901034253 | 75 | 161 | 0.0 | 0.0 | 0.00 | 0.09 | 0.10 | 88 | 1011.4 |
| 20260901033933 | 75 | 161 | 0.0 | 0.0 | 0.00 | 0.09 | 0.10 | 88 | 1011.5 |
| 20260901033829 | 75 | 161 | 0.0 | 0.0 | 0.00 | 0.09 | 0.10 | 88 | 1011.5 |
| 20260901033722 | 75 | 161 | 0.0 | 0.0 | 0.00 | 0.09 | 0.10 | 88 | 1011.5 |
| 20260901033618 | 75 | 161 | 0.0 | 0.0 | 0.00 | 0.09 | 0.10 | 88 | 1011.5 |
| 20260901033513 | 75 | 161 | 0.0 | 0.0 | 0.00 | 0.09 | 0.10 | 88 | 1011.6 |
| 20260901033150 | 75 | 161 | 0.0 | 0.0 | 0.00 | 0.09 | 0.10 | 88 | 1011.5 |
| 20260901032828 | 75 | 161 | 0.0 | 0.0 | 0.00 | 0.09 | 0.10 | 88 | 1011.6 |
| 20260901032725 | 75 | 161 | 0.0 | 0.0 | 0.00 | 0.09 | 0.10 | 88 | 1011.6 |
| 20260901032622 | 75 | 161 | 0.0 | 0.0 | 0.00 | 0.09 | 0.10 | 88 | 1011.6 |
| 20260901032520 | 75 | 161 | 0.0 | 0.0 | 0.00 | 0.09 | 0.10 | 88 | 1011.6 |
| 20260901032158 | 75 | 181 | 0.0 | 0.0 | 0.00 | 0.09 | 0.10 | 88 | 1011.6 |
| 20260901031833 | 75 | 206 | 0.0 | 0.0 | 0.00 | 0.09 | 0.10 | 87 | 1011.6 |
| 20260901031727 | 75 | 207 | 0.0 | 0.0 | 0.00 | 0.09 | 0.10 | 87 | 1011.7 |
| 20260901031624 | 75 | 207 | 0.0 | 0.0 | 0.00 | 0.09 | 0.10 | 87 | 1011.7 |
| 20260901031518 | 75 | 207 | 0.0 | 0.0 | 0.00 | 0.09 | 0.10 | 87 | 1011.6 |
| 20260901030937 | 75 | 236 | 0.0 | 0.0 | 0.00 | 0.09 | 0.10 | 87 | 1011.6 |
| 20260901030612 | 75 | 219 | 0.0 | 0.0 | 0.00 | 0.09 | 0.10 | 87 | 1011.5 |
| 20260901030504 | 75 | 219 | 0.0 | 0.0 | 0.00 | 0.09 | 0.10 | 87 | 1011.5 |
| 20260901030359 | 75 | 219 | 0.0 | 0.0 | 0.00 | 0.09 | 0.10 | 87 | 1011.6 |
| 20260901030257 | 75 | 219 | 0.0 | 0.0 | 0.00 | 0.09 | 0.10 | 87 | 1011.6 |
| 20260901030150 | 75 | 219 | 0.0 | 0.0 | 0.00 | 0.09 | 0.10 | 87 | 1011.5 |
| 20260901030047 | 75 | 219 | 0.0 | 0.0 | 0.00 | 0.09 | 0.10 | 87 | 1011.5 |
| 20260901025726 | 75 | 160 | 0.0 | 0.0 | 0.00 | 0.09 | 0.10 | 87 | 1011.6 |
| 20260901025622 | 75 | 153 | 0.0 | 0.0 | 0.00 | 0.09 | 0.10 | 86 | 1011.5 |
| 20260901025518 | 75 | 206 | 0.0 | 0.0 | 0.00 | 0.09 | 0.10 | 86 | 1011.5 |
| 20260901025412 | 75 | 205 | 0.0 | 0.0 | 0.00 | 0.09 | 0.10 | 86 | 1011.5 |
| 20260901025309 | 75 | 207 | 0.0 | 0.0 | 0.00 | 0.09 | 0.10 | 86 | 1011.5 |
| 20260901024725 | 75 | 201 | 0.0 | 6.0 | 0.00 | 0.09 | 0.10 | 86 | 1011.5 |
| 20260901024621 | 75 | 208 | 0.0 | 6.0 | 0.00 | 0.09 | 0.10 | 86 | 1011.5 |
| 20260901024517 | 75 | 187 | 0.0 | 0.0 | 0.00 | 0.09 | 0.10 | 86 | 1011.5 |
| 20260901024409 | 75 | 190 | 0.0 | 4.0 | 0.00 | 0.09 | 0.10 | 86 | 1011.5 |
| 20260901024303 | 75 | 192 | 0.0 | 4.0 | 0.00 | 0.09 | 0.10 | 86 | 1011.5 |
| 20260901024201 | 75 | 163 | 0.0 | 2.0 | 0.00 | 0.09 | 0.10 | 86 | 1011.5 |
| 20260901024056 | 75 | 163 | 0.0 | 2.0 | 0.00 | 0.09 | 0.10 | 86 | 1011.5 |
| 20260901023952 | 75 | 169 | 0.0 | 2.0 | 0.00 | 0.09 | 0.10 | 86 | 1011.5 |
| 20260901023846 | 75 | 171 | 0.0 | 0.0 | 0.00 | 0.09 | 0.10 | 86 | 1011.5 |
| 20260901023741 | 75 | 169 | 0.0 | 3.0 | 0.00 | 0.09 | 0.10 | 86 | 1011.5 |
| 20260901023639 | 75 | 130 | 0.0 | 3.0 | 0.00 | 0.09 | 0.10 | 86 | 1011.5 |
| 20260901023533 | 75 | 174 | 0.0 | 0.0 | 0.00 | 0.09 | 0.10 | 86 | 1011.5 |
| 20260901023428 | 75 | 172 | 0.0 | 0.0 | 0.00 | 0.09 | 0.10 | 86 | 1011.6 |
| 20260901023324 | 75 | 172 | 0.0 | 3.0 | 0.00 | 0.09 | 0.10 | 86 | 1011.6 |
| 20260901022956 | 75 | 186 | 0.0 | 2.0 | 0.00 | 0.09 | 0.10 | 86 | 1011.6 |
| 20260901022851 | 75 | 166 | 0.0 | 1.0 | 0.00 | 0.09 | 0.10 | 86 | 1011.6 |
| 20260901022744 | 75 | 166 | 0.0 | 1.0 | 0.00 | 0.09 | 0.10 | 86 | 1011.6 |
| 20260901022638 | 75 | 192 | 0.0 | 0.0 | 0.00 | 0.09 | 0.10 | 86 | 1011.6 |
| 20260901022531 | 75 | 193 | 0.0 | 0.0 | 0.00 | 0.09 | 0.10 | 86 | 1011.6 |
| 20260901022426 | 75 | 194 | 0.0 | 0.0 | 0.00 | 0.09 | 0.10 | 86 | 1011.6 |
| 20260901022319 | 75 | 195 | 0.0 | 0.0 | 0.00 | 0.09 | 0.10 | 86 | 1011.6 |
| 20260901022211 | 75 | 197 | 0.0 | 0.0 | 0.00 | 0.09 | 0.10 | 86 | 1011.7 |
| 20260901021846 | 75 | 200 | 0.0 | 1.0 | 0.00 | 0.09 | 0.10 | 86 | 1011.5 |
| 20260901021742 | 75 | 202 | 0.0 | 1.0 | 0.00 | 0.09 | 0.10 | 86 | 1011.6 |
| 20260901021639 | 75 | 180 | 0.0 | 0.0 | 0.00 | 0.09 | 0.10 | 86 | 1011.6 |
| 20260901021316 | 75 | 163 | 0.0 | 0.0 | 0.00 | 0.09 | 0.10 | 86 | 1011.6 |
| 20260901020951 | 75 | 188 | 0.0 | 2.0 | 0.00 | 0.09 | 0.10 | 86 | 1011.5 |
| 20260901020849 | 75 | 190 | 0.0 | 2.0 | 0.00 | 0.09 | 0.10 | 86 | 1011.4 |
| 20260901020743 | 75 | 194 | 0.0 | 0.0 | 0.00 | 0.09 | 0.10 | 86 | 1011.4 |
| 20260901020637 | 75 | 186 | 0.0 | 0.0 | 0.00 | 0.09 | 0.10 | 86 | 1011.4 |
| 20260901020530 | 75 | 182 | 0.0 | 0.0 | 0.00 | 0.09 | 0.10 | 86 | 1011.5 |
| 20260901020427 | 75 | 182 | 0.0 | 0.0 | 0.00 | 0.09 | 0.10 | 86 | 1011.5 |
| 20260901015957 | 75 | 199 | 0.0 | 3.0 | 0.00 | 0.09 | 0.10 | 86 | 1011.4 |
| 20260901015850 | 75 | 186 | 0.0 | 0.0 | 0.00 | 0.09 | 0.10 | 86 | 1011.4 |
| 20260901015743 | 75 | 187 | 0.0 | 0.0 | 0.00 | 0.09 | 0.10 | 86 | 1011.3 |
| 20260901015639 | 75 | 194 | 0.0 | 0.0 | 0.00 | 0.09 | 0.10 | 86 | 1011.3 |
| 20260901015313 | 75 | 199 | 0.0 | 2.0 | 0.00 | 0.09 | 0.10 | 86 | 1011.4 |
| 20260901015206 | 75 | 175 | 0.0 | 0.0 | 0.00 | 0.09 | 0.10 | 86 | 1011.4 |
| 20260901015059 | 75 | 175 | 0.0 | 0.0 | 0.00 | 0.09 | 0.10 | 86 | 1011.4 |
| 20260901014951 | 75 | 174 | 0.0 | 0.0 | 0.00 | 0.09 | 0.10 | 86 | 1011.4 |
| 20260901014405 | 74 | 173 | 0.0 | 0.0 | 0.00 | 0.09 | 0.10 | 87 | 1011.4 |
| 20260901014259 | 74 | 173 | 0.0 | 0.0 | 0.00 | 0.09 | 0.10 | 87 | 1011.4 |
| 20260901014152 | 74 | 173 | 0.0 | 0.0 | 0.00 | 0.09 | 0.10 | 87 | 1011.3 |
| 20260901014045 | 74 | 173 | 0.0 | 0.0 | 0.00 | 0.09 | 0.10 | 87 | 1011.3 |
| 20260901013940 | 74 | 180 | 0.0 | 0.0 | 0.00 | 0.09 | 0.10 | 87 | 1011.3 |
| 20260901013835 | 74 | 180 | 0.0 | 0.0 | 0.00 | 0.09 | 0.10 | 87 | 1011.2 |
| 20260901013728 | 74 | 180 | 0.0 | 0.0 | 0.00 | 0.09 | 0.10 | 87 | 1011.3 |
| 20260901013623 | 74 | 181 | 0.0 | 3.0 | 0.00 | 0.09 | 0.10 | 87 | 1011.3 |
| 20260901013519 | 74 | 181 | 0.0 | 3.0 | 0.00 | 0.09 | 0.10 | 87 | 1011.3 |
| 20260901013413 | 74 | 171 | 0.0 | 2.0 | 0.00 | 0.09 | 0.10 | 87 | 1011.3 |
| 20260901013310 | 74 | 207 | 0.0 | 2.0 | 0.00 | 0.09 | 0.10 | 87 | 1011.3 |
| 20260901012726 | 74 | 168 | 0.0 | 0.0 | 0.00 | 0.09 | 0.10 | 87 | 1011.1 |
| 20260901012619 | 74 | 168 | 0.0 | 0.0 | 0.00 | 0.09 | 0.10 | 87 | 1011.1 |
| 20260901012516 | 74 | 169 | 0.0 | 0.0 | 0.00 | 0.09 | 0.10 | 87 | 1011.2 |
| 20260901012151 | 74 | 175 | 0.0 | 0.0 | 0.00 | 0.09 | 0.10 | 87 | 1011.1 |
| 20260901011830 | 74 | 192 | 0.0 | 0.0 | 0.00 | 0.09 | 0.10 | 87 | 1011.2 |
| 20260901011727 | 74 | 166 | 0.0 | 0.0 | 0.00 | 0.09 | 0.10 | 87 | 1011.2 |
| 20260901011623 | 74 | 160 | 0.0 | 0.0 | 0.00 | 0.09 | 0.10 | 87 | 1011.1 |
| 20260901011520 | 74 | 159 | 0.0 | 0.0 | 0.00 | 0.09 | 0.10 | 87 | 1011.1 |
| 20260901011415 | 74 | 159 | 0.0 | 0.0 | 0.00 | 0.09 | 0.10 | 87 | 1011.1 |
| 20260901011311 | 74 | 159 | 0.0 | 0.0 | 0.00 | 0.09 | 0.10 | 88 | 1011.1 |
| 20260901011204 | 74 | 159 | 0.0 | 0.0 | 0.00 | 0.09 | 0.10 | 88 | 1011.1 |
| 20260901011058 | 74 | 146 | 0.0 | 1.0 | 0.00 | 0.09 | 0.10 | 88 | 1011.1 |
| 20260901010954 | 73 | 186 | 0.0 | 1.0 | 0.00 | 0.09 | 0.10 | 88 | 1011.1 |
| 20260901010851 | 73 | 165 | 0.0 | 0.0 | 0.00 | 0.09 | 0.10 | 88 | 1011.1 |
| 20260901010745 | 73 | 165 | 0.0 | 0.0 | 0.00 | 0.09 | 0.10 | 88 | 1011.0 |
| 20260901010639 | 73 | 165 | 0.0 | 0.0 | 0.00 | 0.09 | 0.10 | 88 | 1011.0 |
| 20260901010535 | 73 | 165 | 0.0 | 0.0 | 0.00 | 0.09 | 0.10 | 88 | 1011.0 |
| 20260901010434 | 73 | 165 | 0.0 | 0.0 | 0.00 | 0.09 | 0.10 | 88 | 1011.0 |
| 20260901010330 | 73 | 165 | 0.0 | 0.0 | 0.00 | 0.09 | 0.10 | 88 | 1011.0 |
| 20260901010223 | 73 | 164 | 0.0 | 0.0 | 0.00 | 0.09 | 0.10 | 88 | 1010.9 |
| 20260901010120 | 73 | 184 | 0.0 | 0.0 | 0.00 | 0.09 | 0.10 | 88 | 1010.9 |
| 20260901005801 | 73 | 198 | 0.0 | 0.0 | 0.00 | 0.09 | 0.10 | 88 | 1010.9 |
| 20260901005657 | 73 | 175 | 0.0 | 0.0 | 0.00 | 0.09 | 0.10 | 88 | 1010.9 |
| 20260901005333 | 73 | 178 | 0.0 | 0.0 | 0.00 | 0.09 | 0.10 | 88 | 1010.8 |
| 20260901005227 | 73 | 176 | 0.0 | 0.0 | 0.00 | 0.09 | 0.10 | 88 | 1010.8 |
| 20260901005123 | 73 | 175 | 0.0 | 0.0 | 0.00 | 0.09 | 0.10 | 88 | 1010.8 |
| 20260901005018 | 73 | 179 | 0.0 | 0.0 | 0.00 | 0.09 | 0.10 | 88 | 1010.9 |
| 20260901004915 | 73 | 179 | 0.0 | 0.0 | 0.00 | 0.09 | 0.10 | 88 | 1010.9 |
| 20260901004809 | 73 | 179 | 0.0 | 0.0 | 0.00 | 0.09 | 0.10 | 88 | 1011.0 |
| 20260901004703 | 73 | 168 | 0.0 | 0.0 | 0.00 | 0.09 | 0.10 | 88 | 1011.0 |
| 20260901004121 | 73 | 166 | 0.0 | 0.0 | 0.00 | 0.09 | 0.10 | 88 | 1011.0 |
| 20260901004019 | 73 | 166 | 0.0 | 0.0 | 0.00 | 0.09 | 0.10 | 88 | 1010.9 |
| 20260901003916 | 73 | 166 | 0.0 | 0.0 | 0.00 | 0.09 | 0.10 | 89 | 1011.0 |
| 20260901003814 | 73 | 166 | 0.0 | 0.0 | 0.00 | 0.09 | 0.10 | 88 | 1011.0 |
| 20260901003449 | 73 | 167 | 0.0 | 0.0 | 0.00 | 0.09 | 0.10 | 88 | 1010.9 |
| 20260901003344 | 73 | 166 | 0.0 | 0.0 | 0.00 | 0.09 | 0.10 | 88 | 1010.9 |
| 20260901003021 | 73 | 163 | 0.0 | 0.0 | 0.00 | 0.09 | 0.10 | 89 | 1010.7 |
| 20260901002916 | 73 | 161 | 0.0 | 0.0 | 0.00 | 0.09 | 0.10 | 89 | 1010.7 |
| 20260901002812 | 73 | 177 | 0.0 | 0.0 | 0.00 | 0.09 | 0.10 | 89 | 1010.7 |
| 20260901002706 | 73 | 173 | 0.0 | 0.0 | 0.00 | 0.09 | 0.10 | 89 | 1010.7 |
| 20260901002559 | 73 | 173 | 0.0 | 0.0 | 0.00 | 0.09 | 0.10 | 89 | 1010.6 |
| 20260901002453 | 73 | 161 | 0.0 | 0.0 | 0.00 | 0.09 | 0.10 | 88 | 1010.7 |
| 20260901002347 | 73 | 161 | 0.0 | 0.0 | 0.00 | 0.09 | 0.10 | 89 | 1010.7 |
| 20260901002243 | 73 | 161 | 0.0 | 0.0 | 0.00 | 0.09 | 0.10 | 89 | 1010.7 |
| 20260901001916 | 73 | 186 | 0.0 | 0.0 | 0.00 | 0.09 | 0.10 | 89 | 1010.7 |
| 20260901001812 | 73 | 175 | 0.0 | 0.0 | 0.00 | 0.09 | 0.10 | 89 | 1010.7 |
| 20260901001708 | 73 | 175 | 0.0 | 0.0 | 0.00 | 0.09 | 0.10 | 89 | 1010.7 |
| 20260901001606 | 73 | 146 | 0.0 | 0.0 | 0.00 | 0.09 | 0.10 | 89 | 1010.7 |
| 20260901001502 | 73 | 159 | 0.0 | 0.0 | 0.00 | 0.09 | 0.10 | 89 | 1010.7 |
| 20260901001357 | 73 | 166 | 0.0 | 0.0 | 0.00 | 0.09 | 0.10 | 89 | 1010.6 |
| 20260901001250 | 73 | 149 | 0.0 | 0.0 | 0.00 | 0.09 | 0.10 | 89 | 1010.6 |
| 20260901001145 | 73 | 155 | 0.0 | 1.0 | 0.00 | 0.09 | 0.10 | 89 | 1010.6 |
| 20260901001039 | 73 | 160 | 0.0 | 1.0 | 0.00 | 0.09 | 0.10 | 89 | 1010.6 |
| 20260901000937 | 73 | 179 | 0.0 | 2.0 | 0.00 | 0.09 | 0.10 | 89 | 1010.6 |
| 20260901000832 | 73 | 165 | 0.0 | 2.0 | 0.00 | 0.09 | 0.10 | 89 | 1010.7 |
| 20260901000728 | 73 | 137 | 0.0 | 5.0 | 0.00 | 0.09 | 0.10 | 89 | 1010.7 |
| 20260901000622 | 73 | 142 | 0.0 | 5.0 | 0.00 | 0.09 | 0.10 | 89 | 1010.7 |
| 20260901000518 | 73 | 165 | 0.0 | 5.0 | 0.00 | 0.09 | 0.10 | 89 | 1010.7 |
| 20260901000413 | 73 | 144 | 0.0 | 5.0 | 0.00 | 0.09 | 0.10 | 89 | 1010.7 |
| 20260901000313 | 73 | 170 | 0.0 | 5.0 | 0.00 | 0.09 | 0.10 | 89 | 1010.7 |
| 20260901000204 | 73 | 121 | 0.0 | 5.0 | 0.00 | 0.09 | 0.10 | 89 | 1010.7 |
| 20260901000058 | 73 | 166 | 0.0 | 0.0 | 0.00 | 0.09 | 0.10 | 89 | 1010.7 |
| 20260831235953 | 73 | 163 | 0.0 | 0.0 | 0.00 | 0.09 | 0.10 | 89 | 1010.7 |
| 20260831235634 | 73 | 159 | 0.0 | 0.0 | 0.00 | 0.09 | 0.10 | 89 | 1010.7 |
| 20260831235531 | 73 | 159 | 0.0 | 4.0 | 0.00 | 0.09 | 0.10 | 89 | 1010.7 |
| 20260831235424 | 73 | 172 | 0.0 | 4.0 | 0.00 | 0.09 | 0.10 | 89 | 1010.8 |
| 20260831235320 | 73 | 146 | 0.0 | 3.0 | 0.00 | 0.09 | 0.10 | 89 | 1010.8 |
| 20260831235215 | 73 | 163 | 0.0 | 4.0 | 0.00 | 0.09 | 0.10 | 89 | 1010.7 |
| 20260831235112 | 73 | 145 | 0.0 | 4.0 | 0.00 | 0.09 | 0.10 | 89 | 1010.9 |
| 20260831234744 | 73 | 187 | 0.0 | 5.0 | 0.00 | 0.09 | 0.10 | 89 | 1011.1 |
| 20260831234638 | 73 | 166 | 0.0 | 5.0 | 0.00 | 0.09 | 0.10 | 89 | 1011.0 |
| 20260831233835 | 73 | 154 | 0.0 | 4.0 | 0.00 | 0.09 | 0.10 | 89 | 1010.9 |
| 20260831233507 | 73 | 115 | 0.0 | 3.0 | 0.00 | 0.09 | 0.10 | 89 | 1010.9 |
| 20260831233405 | 73 | 133 | 0.0 | 2.0 | 0.00 | 0.09 | 0.10 | 89 | 1010.9 |
| 20260831233302 | 73 | 151 | 0.0 | 2.0 | 0.00 | 0.09 | 0.10 | 89 | 1011.0 |
| 20260831233154 | 73 | 138 | 0.0 | 2.0 | 0.00 | 0.09 | 0.10 | 89 | 1011.1 |
| 20260831232832 | 73 | 134 | 0.0 | 4.0 | 0.00 | 0.09 | 0.10 | 89 | 1011.2 |
| 20260831232725 | 73 | 163 | 0.0 | 4.0 | 0.00 | 0.09 | 0.10 | 89 | 1011.2 |
| 20260831232620 | 73 | 151 | 0.0 | 4.0 | 0.00 | 0.09 | 0.10 | 89 | 1011.2 |
| 20260831232515 | 73 | 166 | 0.0 | 4.0 | 0.00 | 0.09 | 0.10 | 89 | 1011.2 |
| 20260831232411 | 73 | 140 | 0.0 | 4.0 | 0.00 | 0.09 | 0.10 | 89 | 1011.2 |
| 20260831232306 | 73 | 159 | 0.0 | 4.0 | 0.00 | 0.09 | 0.10 | 89 | 1011.2 |
| 20260831232157 | 73 | 161 | 0.0 | 4.0 | 0.00 | 0.09 | 0.10 | 89 | 1011.2 |
| 20260831232055 | 73 | 155 | 0.0 | 4.0 | 0.00 | 0.09 | 0.10 | 89 | 1011.3 |
| 20260831231949 | 73 | 153 | 0.0 | 4.0 | 0.00 | 0.09 | 0.10 | 89 | 1011.3 |
| 20260831231842 | 73 | 155 | 0.0 | 4.0 | 0.00 | 0.09 | 0.10 | 89 | 1011.4 |
| 20260831231739 | 73 | 138 | 0.0 | 3.0 | 0.00 | 0.09 | 0.10 | 89 | 1011.5 |
| 20260831231636 | 73 | 157 | 0.0 | 3.0 | 0.00 | 0.09 | 0.10 | 89 | 1011.6 |
| 20260831231531 | 73 | 143 | 0.0 | 0.0 | 0.00 | 0.09 | 0.10 | 89 | 1011.6 |
| 20260831231425 | 73 | 150 | 0.0 | 0.0 | 0.00 | 0.09 | 0.10 | 89 | 1011.5 |
| 20260831231320 | 73 | 146 | 0.0 | 0.0 | 0.00 | 0.09 | 0.10 | 89 | 1011.6 |
| 20260831231213 | 73 | 169 | 0.0 | 0.0 | 0.00 | 0.09 | 0.10 | 89 | 1011.7 |
| 20260831231108 | 73 | 169 | 0.0 | 0.0 | 0.00 | 0.09 | 0.10 | 89 | 1011.7 |
| 20260831231004 | 73 | 163 | 0.0 | 0.0 | 0.00 | 0.09 | 0.10 | 89 | 1011.7 |
| 20260831230901 | 73 | 148 | 0.0 | 0.0 | 0.00 | 0.09 | 0.10 | 89 | 1011.7 |
| 20260831230534 | 73 | 153 | 0.0 | 0.0 | 0.00 | 0.09 | 0.10 | 89 | 1011.7 |
| 20260831230214 | 73 | 149 | 0.0 | 0.0 | 0.00 | 0.09 | 0.10 | 89 | 1011.7 |
| 20260831230110 | 73 | 149 | 0.0 | 0.0 | 0.00 | 0.09 | 0.10 | 89 | 1011.8 |
| 20260831230006 | 73 | 149 | 0.0 | 0.0 | 0.00 | 0.09 | 0.10 | 89 | 1011.7 |
| 20260831225904 | 73 | 133 | 0.0 | 0.0 | 0.00 | 0.09 | 0.10 | 89 | 1011.7 |
| 20260831225800 | 73 | 151 | 0.0 | 0.0 | 0.00 | 0.09 | 0.10 | 89 | 1011.6 |
| 20260831225654 | 73 | 151 | 0.0 | 0.0 | 0.00 | 0.09 | 0.10 | 89 | 1011.6 |
| 20260831225551 | 73 | 135 | 0.0 | 0.0 | 0.00 | 0.09 | 0.10 | 89 | 1011.6 |
| 20260831225448 | 73 | 146 | 0.0 | 0.0 | 0.00 | 0.09 | 0.10 | 89 | 1011.6 |
| 20260831225345 | 73 | 145 | 0.0 | 0.0 | 0.00 | 0.09 | 0.10 | 89 | 1011.6 |
| 20260831225236 | 73 | 143 | 0.0 | 0.0 | 0.00 | 0.09 | 0.10 | 89 | 1011.6 |
| 20260831225130 | 73 | 147 | 0.0 | 0.0 | 0.00 | 0.09 | 0.10 | 89 | 1011.6 |
| 20260831225026 | 73 | 147 | 0.0 | 0.0 | 0.00 | 0.09 | 0.10 | 89 | 1011.6 |
| 20260831224924 | 73 | 134 | 0.0 | 0.0 | 0.00 | 0.09 | 0.10 | 89 | 1011.6 |
| 20260831224818 | 73 | 132 | 0.0 | 0.0 | 0.00 | 0.09 | 0.10 | 89 | 1011.7 |
| 20260831224711 | 73 | 158 | 0.0 | 0.0 | 0.00 | 0.09 | 0.10 | 89 | 1011.6 |
| 20260831224607 | 73 | 143 | 0.0 | 2.0 | 0.00 | 0.09 | 0.10 | 89 | 1011.6 |
| 20260831224501 | 73 | 121 | 0.0 | 2.0 | 0.00 | 0.09 | 0.10 | 89 | 1011.6 |
| 20260831224355 | 73 | 132 | 0.0 | 0.0 | 0.00 | 0.09 | 0.10 | 89 | 1011.6 |
| 20260831224253 | 73 | 133 | 0.0 | 0.0 | 0.00 | 0.09 | 0.10 | 89 | 1011.6 |
| 20260831224152 | 73 | 137 | 0.0 | 7.0 | 0.00 | 0.09 | 0.10 | 89 | 1011.6 |
| 20260831224048 | 73 | 103 | 0.0 | 7.0 | 0.00 | 0.09 | 0.10 | 89 | 1011.6 |
| 20260831223724 | 73 | 128 | 0.0 | 7.0 | 0.04 | 0.09 | 0.10 | 89 | 1011.3 |
| 20260831223622 | 73 | 117 | 0.0 | 7.0 | 0.04 | 0.09 | 0.10 | 89 | 1011.4 |
| 20260831223257 | 72 | 150 | 0.0 | 8.0 | 0.04 | 0.09 | 0.10 | 89 | 1011.8 |
| 20260831223155 | 72 | 117 | 0.0 | 8.0 | 0.04 | 0.09 | 0.10 | 89 | 1011.9 |
| 20260831223052 | 72 | 146 | 0.0 | 6.0 | 0.04 | 0.09 | 0.10 | 88 | 1011.9 |
| 20260831222945 | 72 | 162 | 0.0 | 6.0 | 0.04 | 0.09 | 0.10 | 88 | 1012.0 |
| 20260831222618 | 72 | 135 | 0.0 | 6.0 | 0.04 | 0.09 | 0.10 | 88 | 1012.0 |
| 20260831222255 | 73 | 125 | 0.0 | 0.0 | 0.04 | 0.09 | 0.10 | 88 | 1012.1 |
| 20260831222152 | 73 | 92 | 0.0 | 0.0 | 0.04 | 0.09 | 0.09 | 88 | 1012.1 |
| 20260831222050 | 73 | 92 | 0.0 | 0.0 | 0.04 | 0.09 | 0.09 | 88 | 1012.2 |
| 20260831221947 | 73 | 92 | 0.0 | 0.0 | 0.04 | 0.09 | 0.09 | 88 | 1012.3 |
| 20260831221844 | 73 | 92 | 0.0 | 0.0 | 0.04 | 0.09 | 0.09 | 87 | 1012.4 |
| 20260831221737 | 73 | 87 | 0.0 | 0.0 | 0.04 | 0.09 | 0.09 | 87 | 1012.5 |
| 20260831221632 | 73 | 87 | 0.0 | 0.0 | 0.04 | 0.09 | 0.09 | 87 | 1012.6 |
| 20260831221529 | 73 | 86 | 0.0 | 0.0 | 0.04 | 0.09 | 0.09 | 87 | 1012.7 |
| 20260831221424 | 73 | 42 | 0.0 | 0.0 | 0.04 | 0.09 | 0.09 | 87 | 1012.8 |
| 20260831221322 | 73 | 42 | 0.0 | 0.0 | 0.04 | 0.09 | 0.09 | 87 | 1013.0 |
| 20260831221216 | 73 | 42 | 0.0 | 0.0 | 0.04 | 0.09 | 0.09 | 87 | 1013.1 |
| 20260831221109 | 73 | 42 | 0.0 | 0.0 | 0.04 | 0.09 | 0.09 | 86 | 1013.3 |
| 20260831221005 | 73 | 42 | 0.0 | 0.0 | 0.04 | 0.09 | 0.09 | 86 | 1013.3 |
| 20260831220637 | 73 | 42 | 0.0 | 0.0 | 0.05 | 0.08 | 0.08 | 86 | 1012.9 |
| 20260831220314 | 73 | 55 | 0.0 | 0.0 | 0.06 | 0.08 | 0.08 | 86 | 1012.5 |
| 20260831215949 | 73 | 72 | 1.0 | 0.0 | 0.08 | 0.08 | 0.08 | 86 | 1012.3 |
| 20260831215842 | 73 | 84 | 1.0 | 0.0 | 0.08 | 0.08 | 0.08 | 87 | 1012.2 |
| 20260831215738 | 73 | 103 | 1.0 | 6.0 | 0.08 | 0.08 | 0.08 | 87 | 1012.1 |
| 20260831215632 | 73 | 116 | 1.0 | 6.0 | 0.08 | 0.08 | 0.08 | 87 | 1012.0 |
| 20260831215524 | 73 | 94 | 1.0 | 6.0 | 0.08 | 0.08 | 0.08 | 87 | 1012.0 |
| 20260831215420 | 73 | 95 | 1.0 | 6.0 | 0.08 | 0.08 | 0.08 | 87 | 1012.0 |
| 20260831215316 | 73 | 113 | 1.0 | 5.0 | 0.05 | 0.06 | 0.06 | 87 | 1012.2 |
| 20260831214733 | 74 | 165 | 0.0 | 6.0 | 0.05 | 0.06 | 0.06 | 87 | 1012.1 |
| 20260831214628 | 74 | 151 | 0.0 | 6.0 | 0.05 | 0.06 | 0.06 | 87 | 1012.1 |
| 20260831214522 | 74 | 191 | 0.0 | 4.0 | 0.05 | 0.06 | 0.06 | 88 | 1012.0 |
| 20260831214420 | 74 | 131 | 0.0 | 4.0 | 0.05 | 0.06 | 0.06 | 88 | 1012.1 |
| 20260831214313 | 74 | 162 | 0.0 | 1.0 | 0.06 | 0.06 | 0.06 | 87 | 1012.2 |
| 20260831214207 | 74 | 163 | 0.0 | 0.0 | 0.06 | 0.06 | 0.06 | 87 | 1012.3 |
| 20260831214104 | 74 | 138 | 0.0 | 0.0 | 0.06 | 0.06 | 0.06 | 87 | 1012.6 |
| 20260831213958 | 74 | 76 | 0.0 | 0.0 | 0.09 | 0.06 | 0.06 | 87 | 1012.6 |
| 20260831213853 | 74 | 76 | 0.0 | 0.0 | 0.10 | 0.06 | 0.06 | 87 | 1012.7 |
| 20260831213527 | 75 | 153 | 0.0 | 0.0 | 0.13 | 0.06 | 0.06 | 87 | 1013.1 |
| 20260831213422 | 75 | 157 | 0.0 | 0.0 | 0.13 | 0.06 | 0.06 | 87 | 1013.3 |
| 20260831213319 | 75 | 157 | 0.0 | 0.0 | 0.13 | 0.04 | 0.06 | 87 | 1013.5 |
| 20260831213216 | 75 | 157 | 0.0 | 0.0 | 0.17 | 0.04 | 0.05 | 87 | 1013.5 |
| 20260831213110 | 75 | 157 | 0.0 | 0.0 | 0.21 | 0.04 | 0.05 | 87 | 1013.6 |
| 20260831212520 | 75 | 157 | 0.0 | 0.0 | 0.00 | 0.03 | 0.03 | 87 | 1013.6 |
| 20260831212416 | 75 | 157 | 0.0 | 0.0 | 0.00 | 0.03 | 0.03 | 86 | 1013.5 |
| 20260831212312 | 75 | 157 | 0.0 | 0.0 | 0.00 | 0.03 | 0.03 | 86 | 1013.5 |
| 20260831212207 | 76 | 157 | 0.0 | 0.0 | 0.00 | 0.03 | 0.03 | 86 | 1013.5 |
| 20260831212101 | 76 | 157 | 0.0 | 0.0 | 0.00 | 0.03 | 0.03 | 86 | 1013.5 |
| 20260831211955 | 76 | 157 | 0.0 | 0.0 | 0.00 | 0.03 | 0.03 | 86 | 1013.5 |
| 20260831211852 | 76 | 157 | 0.0 | 0.0 | 0.00 | 0.02 | 0.03 | 86 | 1013.6 |
| 20260831211749 | 76 | 157 | 0.0 | 0.0 | 0.00 | 0.02 | 0.02 | 87 | 1013.5 |
| 20260831211646 | 76 | 157 | 0.0 | 0.0 | 0.00 | 0.02 | 0.02 | 87 | 1013.4 |
| 20260831211320 | 76 | 182 | 0.0 | 0.0 | 0.00 | 0.02 | 0.02 | 87 | 1013.4 |
| 20260831211216 | 76 | 180 | 0.0 | 0.0 | 0.00 | 0.02 | 0.02 | 87 | 1013.4 |
| 20260831210854 | 76 | 178 | 0.0 | 0.0 | 0.00 | 0.02 | 0.02 | 87 | 1013.3 |
| 20260831210750 | 76 | 179 | 0.0 | 0.0 | 0.00 | 0.02 | 0.02 | 86 | 1013.3 |
| 20260831210422 | 76 | 281 | 0.0 | 0.0 | 0.04 | 0.02 | 0.02 | 86 | 1013.4 |
| 20260831210316 | 77 | 287 | 0.0 | 0.0 | 0.05 | 0.02 | 0.02 | 86 | 1013.4 |
| 20260831210211 | 77 | 287 | 0.0 | 0.0 | 0.05 | 0.02 | 0.02 | 85 | 1013.5 |
| 20260831205845 | 77 | 340 | 0.0 | 0.0 | 0.06 | 0.04 | 0.02 | 85 | 1013.3 |
| 20260831205738 | 77 | 340 | 0.0 | 0.0 | 0.08 | 0.05 | 0.02 | 84 | 1013.3 |
| 20260831205635 | 77 | 340 | 0.0 | 0.0 | 0.09 | 0.05 | 0.02 | 84 | 1013.3 |
| 20260831205529 | 78 | 340 | 0.0 | 0.0 | 0.09 | 0.05 | 0.02 | 84 | 1013.3 |
| 20260831205424 | 78 | 340 | 0.0 | 0.0 | 0.09 | 0.05 | 0.02 | 83 | 1013.3 |
| 20260831205322 | 78 | 339 | 0.0 | 0.0 | 0.09 | 0.05 | 0.02 | 83 | 1013.3 |
| 20260831205217 | 78 | 339 | 0.0 | 0.0 | 0.09 | 0.05 | 0.02 | 82 | 1013.4 |
| 20260831205109 | 78 | 339 | 0.0 | 0.0 | 0.09 | 0.05 | 0.02 | 82 | 1013.4 |
| 20260831204742 | 79 | 355 | 0.0 | 0.0 | 0.00 | 0.04 | 0.01 | 80 | 1013.7 |
| 20260831204415 | 80 | 355 | 0.0 | 0.0 | 0.00 | 0.04 | 0.01 | 79 | 1013.8 |
| 20260831204313 | 80 | 355 | 0.0 | 0.0 | 0.00 | 0.03 | 0.00 | 78 | 1013.7 |
| 20260831203947 | 80 | 355 | 0.0 | 0.0 | 0.00 | 0.03 | 0.00 | 76 | 1013.8 |
| 20260831203842 | 80 | 355 | 0.0 | 0.0 | 0.00 | 0.03 | 0.00 | 76 | 1013.7 |
| 20260831203737 | 80 | 355 | 0.0 | 0.0 | 0.00 | 0.03 | 0.00 | 76 | 1013.8 |
| 20260831203411 | 81 | 355 | 0.0 | 0.0 | 0.00 | 0.03 | 0.00 | 74 | 1013.7 |
| 20260831203304 | 81 | 355 | 0.0 | 0.0 | 0.00 | 0.03 | 0.00 | 73 | 1013.7 |
| 20260831203157 | 81 | 355 | 0.0 | 0.0 | 0.00 | 0.03 | 0.00 | 73 | 1013.7 |
| 20260831202833 | 82 | 192 | 0.0 | 0.0 | 0.00 | 0.03 | 0.00 | 72 | 1013.6 |
| 20260831202727 | 82 | 192 | 0.0 | 0.0 | 0.00 | 0.03 | 0.00 | 72 | 1013.6 |
| 20260831202623 | 82 | 192 | 0.0 | 0.0 | 0.00 | 0.03 | 0.00 | 71 | 1013.5 |
| 20260831202518 | 82 | 192 | 0.0 | 0.0 | 0.00 | 0.03 | 0.00 | 71 | 1013.4 |
| 20260831202415 | 82 | 192 | 0.0 | 0.0 | 0.00 | 0.03 | 0.00 | 72 | 1013.3 |
| 20260831202312 | 82 | 192 | 0.0 | 0.0 | 0.00 | 0.03 | 0.00 | 71 | 1013.2 |
| 20260831202208 | 82 | 192 | 0.0 | 0.0 | 0.00 | 0.03 | 0.00 | 70 | 1013.1 |
| 20260831202102 | 82 | 192 | 0.0 | 0.0 | 0.00 | 0.03 | 0.00 | 71 | 1013.0 |
| 20260831201956 | 82 | 192 | 0.0 | 0.0 | 0.00 | 0.03 | 0.00 | 71 | 1012.9 |
| 20260831201848 | 83 | 192 | 0.0 | 0.0 | 0.00 | 0.03 | 0.00 | 71 | 1012.8 |
| 20260831201746 | 83 | 192 | 0.0 | 0.0 | 0.00 | 0.03 | 0.00 | 71 | 1012.7 |
| 20260831201420 | 83 | 192 | 0.0 | 0.0 | 0.00 | 0.03 | 0.00 | 69 | 1012.5 |
| 20260831201316 | 83 | 194 | 0.0 | 0.0 | 0.00 | 0.03 | 0.00 | 69 | 1012.5 |
| 20260831201210 | 83 | 194 | 0.0 | 0.0 | 0.00 | 0.03 | 0.00 | 68 | 1012.5 |
| 20260831201107 | 83 | 194 | 0.0 | 0.0 | 0.00 | 0.03 | 0.00 | 69 | 1012.5 |
| 20260831201000 | 83 | 171 | 0.0 | 0.0 | 0.00 | 0.03 | 0.00 | 69 | 1012.5 |
| 20260831200854 | 83 | 171 | 0.0 | 0.0 | 0.00 | 0.03 | 0.00 | 68 | 1012.5 |
| 20260831200747 | 83 | 171 | 0.0 | 0.0 | 0.00 | 0.03 | 0.00 | 67 | 1012.4 |
| 20260831200640 | 83 | 180 | 0.0 | 0.0 | 0.00 | 0.03 | 0.00 | 68 | 1012.4 |
| 20260831200537 | 83 | 222 | 0.0 | 0.0 | 0.00 | 0.03 | 0.00 | 69 | 1012.4 |
| 20260831200432 | 83 | 223 | 0.0 | 3.0 | 0.00 | 0.03 | 0.00 | 68 | 1012.4 |
| 20260831200328 | 83 | 221 | 0.0 | 3.0 | 0.00 | 0.03 | 0.00 | 68 | 1012.4 |
| 20260831200225 | 83 | 189 | 0.0 | 0.0 | 0.00 | 0.03 | 0.00 | 68 | 1012.4 |
| 20260831200122 | 83 | 210 | 0.0 | 3.0 | 0.00 | 0.03 | 0.00 | 68 | 1012.3 |
| 20260831200020 | 83 | 159 | 0.0 | 3.0 | 0.00 | 0.03 | 0.00 | 69 | 1012.4 |
| 20260831195913 | 83 | 203 | 0.0 | 0.0 | 0.00 | 0.03 | 0.00 | 69 | 1012.3 |
| 20260831195810 | 83 | 202 | 0.0 | 3.0 | 0.00 | 0.03 | 0.00 | 68 | 1012.4 |
| 20260831195449 | 84 | 167 | 0.0 | 0.0 | 0.00 | 0.03 | 0.00 | 68 | 1012.4 |
| 20260831195343 | 84 | 210 | 0.0 | 6.0 | 0.00 | 0.03 | 0.00 | 68 | 1012.4 |
| 20260831195021 | 84 | 180 | 0.0 | 6.0 | 0.00 | 0.03 | 0.00 | 67 | 1012.5 |
| 20260831194917 | 84 | 175 | 0.0 | 2.0 | 0.00 | 0.03 | 0.00 | 69 | 1012.4 |
| 20260831194813 | 84 | 157 | 0.0 | 1.0 | 0.00 | 0.03 | 0.00 | 69 | 1012.4 |
| 20260831194711 | 84 | 176 | 0.0 | 0.0 | 0.00 | 0.03 | 0.00 | 70 | 1012.4 |
| 20260831194606 | 84 | 175 | 0.0 | 0.0 | 0.00 | 0.03 | 0.00 | 69 | 1012.4 |
| 20260831194458 | 84 | 175 | 0.0 | 6.0 | 0.00 | 0.03 | 0.00 | 69 | 1012.4 |
| 20260831194351 | 84 | 175 | 0.0 | 6.0 | 0.00 | 0.03 | 0.00 | 68 | 1012.4 |
| 20260831194247 | 84 | 202 | 0.0 | 6.0 | 0.00 | 0.03 | 0.00 | 68 | 1012.4 |
| 20260831194145 | 84 | 205 | 0.0 | 6.0 | 0.00 | 0.03 | 0.00 | 68 | 1012.5 |
| 20260831193816 | 84 | 223 | 0.0 | 6.0 | 0.00 | 0.03 | 0.00 | 67 | 1012.5 |
| 20260831193454 | 84 | 242 | 0.0 | 5.0 | 0.00 | 0.03 | 0.00 | 67 | 1012.5 |
| 20260831193348 | 84 | 253 | 0.0 | 5.0 | 0.00 | 0.03 | 0.00 | 67 | 1012.6 |
| 20260831192806 | 84 | 194 | 0.0 | 6.0 | 0.00 | 0.03 | 0.00 | 65 | 1012.7 |
| 20260831192704 | 84 | 202 | 0.0 | 6.0 | 0.00 | 0.03 | 0.00 | 66 | 1012.7 |
| 20260831192340 | 84 | 224 | 0.0 | 0.0 | 0.00 | 0.03 | 0.00 | 68 | 1012.7 |
| 20260831192235 | 84 | 179 | 0.0 | 0.0 | 0.00 | 0.03 | 0.00 | 69 | 1012.7 |
| 20260831192132 | 84 | 179 | 0.0 | 0.0 | 0.00 | 0.03 | 0.00 | 69 | 1012.7 |
| 20260831192031 | 84 | 180 | 0.0 | 0.0 | 0.00 | 0.03 | 0.00 | 68 | 1012.6 |
| 20260831191928 | 84 | 181 | 0.0 | 7.0 | 0.00 | 0.03 | 0.00 | 65 | 1012.6 |
| 20260831191820 | 84 | 222 | 0.0 | 7.0 | 0.00 | 0.03 | 0.00 | 66 | 1012.6 |
| 20260831191715 | 84 | 167 | 0.0 | 4.0 | 0.00 | 0.03 | 0.00 | 66 | 1012.7 |
| 20260831191610 | 84 | 176 | 0.0 | 2.0 | 0.00 | 0.03 | 0.00 | 65 | 1012.7 |
| 20260831191505 | 84 | 202 | 0.0 | 2.0 | 0.00 | 0.03 | 0.00 | 66 | 1012.7 |
| 20260831191402 | 84 | 175 | 0.0 | 2.0 | 0.00 | 0.03 | 0.00 | 67 | 1012.7 |
| 20260831191300 | 84 | 229 | 0.0 | 6.0 | 0.00 | 0.03 | 0.00 | 65 | 1012.8 |
| 20260831191153 | 85 | 254 | 1.0 | 6.0 | 0.00 | 0.03 | 0.00 | 64 | 1012.7 |
| 20260831191049 | 85 | 271 | 0.0 | 6.0 | 0.00 | 0.03 | 0.00 | 64 | 1012.7 |
| 20260831190942 | 85 | 216 | 0.0 | 6.0 | 0.00 | 0.03 | 0.00 | 65 | 1012.8 |
| 20260831190837 | 85 | 217 | 1.0 | 6.0 | 0.00 | 0.03 | 0.00 | 65 | 1012.8 |
| 20260831190512 | 85 | 227 | 1.0 | 6.0 | 0.00 | 0.03 | 0.00 | 64 | 1012.8 |
| 20260831190410 | 85 | 188 | 1.0 | 6.0 | 0.00 | 0.03 | 0.00 | 64 | 1012.7 |
| 20260831190306 | 85 | 161 | 1.0 | 5.0 | 0.00 | 0.03 | 0.00 | 66 | 1012.7 |
| 20260831190201 | 85 | 240 | 1.0 | 5.0 | 0.00 | 0.03 | 0.00 | 67 | 1012.7 |
| 20260831190058 | 85 | 178 | 1.0 | 6.0 | 0.00 | 0.03 | 0.00 | 67 | 1012.7 |
| 20260831185954 | 85 | 218 | 1.0 | 6.0 | 0.00 | 0.03 | 0.00 | 66 | 1012.7 |
| 20260831185850 | 85 | 225 | 1.0 | 6.0 | 0.00 | 0.03 | 0.00 | 65 | 1012.7 |
| 20260831185747 | 85 | 222 | 1.0 | 6.0 | 0.00 | 0.03 | 0.00 | 67 | 1012.7 |
| 20260831185644 | 85 | 172 | 1.0 | 6.0 | 0.00 | 0.03 | 0.00 | 67 | 1012.7 |
| 20260831185538 | 85 | 223 | 1.0 | 6.0 | 0.00 | 0.03 | 0.00 | 67 | 1012.7 |
| 20260831185433 | 85 | 215 | 1.0 | 6.0 | 0.00 | 0.03 | 0.00 | 66 | 1012.7 |
| 20260831185329 | 85 | 180 | 1.0 | 6.0 | 0.00 | 0.03 | 0.00 | 68 | 1012.7 |
| 20260831185224 | 85 | 259 | 1.0 | 6.0 | 0.00 | 0.03 | 0.00 | 68 | 1012.7 |
| 20260831185122 | 84 | 223 | 1.0 | 6.0 | 0.00 | 0.03 | 0.00 | 67 | 1012.8 |
| 20260831185018 | 84 | 217 | 1.0 | 7.0 | 0.00 | 0.03 | 0.00 | 67 | 1012.8 |
| 20260831184914 | 84 | 202 | 1.0 | 7.0 | 0.00 | 0.03 | 0.00 | 68 | 1012.9 |
| 20260831184807 | 84 | 182 | 1.0 | 7.0 | 0.00 | 0.03 | 0.00 | 68 | 1012.9 |
| 20260831184702 | 84 | 182 | 1.0 | 7.0 | 0.00 | 0.03 | 0.00 | 68 | 1012.9 |
| 20260831184554 | 84 | 263 | 1.0 | 7.0 | 0.00 | 0.03 | 0.00 | 67 | 1012.9 |
| 20260831184451 | 84 | 252 | 0.0 | 7.0 | 0.00 | 0.03 | 0.00 | 68 | 1012.9 |
| 20260831184347 | 84 | 170 | 0.0 | 7.0 | 0.00 | 0.03 | 0.00 | 68 | 1013.0 |
| 20260831184024 | 83 | 214 | 0.0 | 6.0 | 0.00 | 0.03 | 0.00 | 69 | 1013.0 |
| 20260831183920 | 83 | 186 | 0.0 | 6.0 | 0.00 | 0.03 | 0.00 | 70 | 1013.0 |
| 20260831183815 | 83 | 238 | 0.0 | 6.0 | 0.00 | 0.03 | 0.00 | 70 | 1013.0 |
| 20260831183710 | 83 | 247 | 0.0 | 6.0 | 0.00 | 0.03 | 0.00 | 69 | 1013.1 |
| 20260831183603 | 83 | 213 | 0.0 | 6.0 | 0.00 | 0.03 | 0.00 | 69 | 1013.1 |
| 20260831183458 | 83 | 230 | 0.0 | 6.0 | 0.00 | 0.03 | 0.00 | 70 | 1013.2 |
| 20260831183354 | 83 | 237 | 0.0 | 6.0 | 0.00 | 0.03 | 0.00 | 71 | 1013.2 |
| 20260831183252 | 83 | 258 | 0.0 | 6.0 | 0.00 | 0.03 | 0.00 | 70 | 1013.2 |
| 20260831183145 | 82 | 195 | 0.0 | 6.0 | 0.00 | 0.03 | 0.00 | 69 | 1013.3 |
| 20260831182821 | 82 | 214 | 0.0 | 5.0 | 0.00 | 0.03 | 0.00 | 70 | 1013.3 |
| 20260831182713 | 82 | 216 | 0.0 | 5.0 | 0.00 | 0.03 | 0.00 | 71 | 1013.3 |
| 20260831182608 | 82 | 186 | 0.0 | 5.0 | 0.00 | 0.03 | 0.00 | 72 | 1013.3 |
| 20260831182505 | 82 | 172 | 0.0 | 5.0 | 0.00 | 0.03 | 0.00 | 71 | 1013.2 |
| 20260831182400 | 82 | 188 | 0.0 | 5.0 | 0.00 | 0.03 | 0.00 | 71 | 1013.2 |
| 20260831182257 | 82 | 202 | 0.0 | 5.0 | 0.00 | 0.03 | 0.00 | 71 | 1013.2 |
| 20260831182149 | 82 | 203 | 0.0 | 2.0 | 0.00 | 0.03 | 0.00 | 72 | 1013.1 |
| 20260831182046 | 82 | 163 | 0.0 | 0.0 | 0.00 | 0.03 | 0.00 | 71 | 1013.1 |
| 20260831181940 | 82 | 244 | 0.0 | 2.0 | 0.00 | 0.03 | 0.00 | 71 | 1013.1 |
| 20260831181836 | 82 | 245 | 0.0 | 2.0 | 0.00 | 0.03 | 0.00 | 71 | 1013.1 |
| 20260831181512 | 82 | 252 | 0.0 | 7.0 | 0.00 | 0.03 | 0.00 | 71 | 1013.2 |
| 20260831181146 | 82 | 186 | 0.0 | 0.0 | 0.00 | 0.03 | 0.00 | 71 | 1013.2 |
| 20260831181042 | 82 | 208 | 0.0 | 0.0 | 0.00 | 0.03 | 0.00 | 72 | 1013.2 |
| 20260831180935 | 82 | 208 | 0.0 | 0.0 | 0.00 | 0.03 | 0.00 | 70 | 1013.2 |
| 20260831180827 | 82 | 211 | 0.0 | 0.0 | 0.00 | 0.03 | 0.00 | 72 | 1013.2 |
| 20260831180722 | 81 | 222 | 0.0 | 0.0 | 0.00 | 0.03 | 0.00 | 71 | 1013.2 |
| 20260831180616 | 81 | 219 | 0.0 | 1.0 | 0.00 | 0.03 | 0.00 | 71 | 1013.1 |
| 20260831180251 | 81 | 178 | 0.0 | 0.0 | 0.00 | 0.03 | 0.00 | 73 | 1013.1 |
| 20260831175928 | 81 | 182 | 0.0 | 0.0 | 0.00 | 0.03 | 0.00 | 72 | 1013.2 |
| 20260831175559 | 81 | 186 | 0.0 | 3.0 | 0.00 | 0.03 | 0.00 | 70 | 1013.2 |
| 20260831175456 | 81 | 188 | 0.0 | 2.0 | 0.00 | 0.03 | 0.00 | 72 | 1013.2 |
| 20260831175349 | 81 | 161 | 0.0 | 0.0 | 0.00 | 0.03 | 0.00 | 72 | 1013.2 |
| 20260831175026 | 81 | 160 | 0.0 | 2.0 | 0.00 | 0.03 | 0.00 | 70 | 1013.2 |
| 20260831174920 | 81 | 146 | 0.0 | 2.0 | 0.00 | 0.03 | 0.00 | 70 | 1013.2 |
| 20260831174818 | 81 | 143 | 0.0 | 1.0 | 0.00 | 0.03 | 0.00 | 69 | 1013.2 |
| 20260831174714 | 81 | 186 | 0.0 | 0.0 | 0.00 | 0.03 | 0.00 | 70 | 1013.2 |
| 20260831174608 | 81 | 186 | 0.0 | 0.0 | 0.00 | 0.03 | 0.00 | 70 | 1013.2 |
| 20260831174504 | 81 | 186 | 0.0 | 0.0 | 0.00 | 0.03 | 0.00 | 70 | 1013.3 |
| 20260831174402 | 81 | 188 | 0.0 | 0.0 | 0.00 | 0.03 | 0.00 | 70 | 1013.3 |
| 20260831174041 | 81 | 281 | 0.0 | 0.0 | 0.00 | 0.03 | 0.00 | 71 | 1013.4 |
| 20260831173718 | 81 | 281 | 0.0 | 0.0 | 0.00 | 0.03 | 0.00 | 70 | 1013.3 |
| 20260831173616 | 81 | 182 | 0.0 | 0.0 | 0.00 | 0.03 | 0.00 | 72 | 1013.3 |
| 20260831173250 | 81 | 182 | 0.0 | 0.0 | 0.00 | 0.03 | 0.00 | 71 | 1013.2 |
| 20260831173147 | 81 | 182 | 0.0 | 0.0 | 0.00 | 0.03 | 0.00 | 70 | 1013.2 |
| 20260831173043 | 81 | 182 | 0.0 | 0.0 | 0.00 | 0.03 | 0.00 | 71 | 1013.2 |
| 20260831172939 | 81 | 181 | 0.0 | 0.0 | 0.00 | 0.03 | 0.00 | 72 | 1013.2 |
| 20260831172614 | 81 | 182 | 0.0 | 0.0 | 0.00 | 0.03 | 0.00 | 70 | 1013.2 |
| 20260831172507 | 82 | 182 | 0.0 | 0.0 | 0.00 | 0.03 | 0.00 | 70 | 1013.2 |
| 20260831172359 | 82 | 182 | 0.0 | 2.0 | 0.00 | 0.03 | 0.00 | 70 | 1013.2 |
| 20260831172252 | 82 | 182 | 0.0 | 2.0 | 0.00 | 0.03 | 0.00 | 69 | 1013.2 |